ECMWFFLT1_500_avort_000.txt.gz
Vorticity
10 10 11 7 6 3 1 10 19 18 11 11 14 11 9 9 7 7 8 6 5 7 7 5 5 8 9 8 9 10 12 12 10 8 8 8 6 5 5 6 8 8 8 8 8 8 8 8 6 6 6 6 6 6 6 6 6 5 4 4 4 6 7
4 2 6 7 8 4 2 8 13 16 13 7 5 5 4 4 3 4 5 6 8 8 6 4 6 9 5 5 9 10 9 8 8 8 8 7 7 6 5 6 7 8 8 8 8 7 8 7 7 7 7 7 6 5 4 5 6 4 3 4 4 5 6
6 2 4 4 6 4 5 11 12 14 15 11 7 4 3 3 3 5 6 8 9 7 6 7 9 8 5 7 10 8 8 10 8 7 8 9 11 10 6 6 9 9 8 8 8 7 7 8 8 8 7 7 7 6 4 3 5 5 3 4 4 5 5
7 0 2 5 5 4 6 10 13 14 13 12 13 12 11 10 8 8 8 8 7 6 7 8 9 9 8 8 6 3 6 11 10 7 7 10 12 9 4 5 10 11 8 8 8 8 9 9 9 9 9 9 9 7 5 3 4 5 4 5 5 5 5
3 -4 2 6 2 5 9 9 14 21 21 19 17 17 18 18 16 13 9 6 5 5 6 7 9 9 6 5 3 3 6 10 10 8 7 8 9 7 2 1 7 13 14 12 9 9 9 9 10 10 10 9 9 9 6 3 4 5 5 7 7 5 4
-0 -4 1 3 1 8 12 11 13 17 19 20 19 19 17 16 17 14 7 4 4 5 7 9 11 9 6 8 7 6 9 9 7 8 8 8 9 9 6 2 4 10 14 13 10 7 6 10 13 13 12 9 8 9 9 6 4 5 6 8 9 6 5
3 -3 0 2 4 12 14 10 9 8 13 17 15 16 18 18 19 16 11 10 10 11 12 11 11 8 6 10 8 5 7 7 9 14 13 10 11 11 9 9 8 10 13 11 9 8 7 9 13 13 12 10 9 9 9 7 3 3 8 10 7 7 7
2 -1 -1 -0 6 17 16 9 4 4 11 13 7 8 11 13 16 15 14 14 11 10 9 7 7 7 6 8 7 6 7 6 8 14 15 16 19 16 11 11 9 9 14 12 9 11 10 8 8 9 10 10 11 12 9 5 2 1 7 9 5 5 6
4 4 -3 -1 13 21 15 9 9 9 10 6 -2 -1 3 8 12 11 10 9 7 7 7 6 7 7 6 6 6 7 7 6 6 12 17 17 14 13 11 9 6 8 13 9 5 7 8 7 4 2 6 9 9 12 13 9 6 4 6 8 5 3 4
6 5 -3 3 15 18 14 12 13 15 14 8 1 3 10 15 13 9 10 14 15 15 12 10 9 7 7 9 8 9 7 4 2 1 6 10 10 12 10 1 2 11 14 9 7 7 5 3 -0 -4 0 6 6 8 12 11 8 7 7 6 5 4 4
10 3 3 11 11 10 10 7 4 6 7 5 8 12 12 8 2 1 6 10 14 16 13 12 11 8 9 10 10 11 8 9 9 -1 -0 6 3 3 4 -1 2 12 18 16 12 9 8 5 1 -1 -2 2 6 7 9 12 10 9 10 5 3 5 3
10 6 10 16 11 8 6 -2 -3 4 7 9 14 12 1 -5 -3 0 0 -1 2 7 8 11 11 8 7 6 10 13 7 6 10 5 6 9 2 4 14 12 5 3 10 19 14 4 8 11 5 3 4 5 8 6 5 10 11 9 10 5 4 7 3
12 11 12 15 13 10 6 -0 0 7 9 9 8 6 -0 -3 -1 -2 -4 -3 0 2 5 10 12 12 9 4 8 14 8 3 6 6 8 12 8 6 6 1 4 7 5 14 23 14 4 3 2 6 11 10 7 5 4 8 10 8 8 6 5 7 5
15 10 8 15 13 4 2 3 5 8 11 8 3 0 0 -1 -1 -2 -1 2 2 0 1 5 10 13 11 8 9 12 8 8 14 13 10 14 14 8 9 10 15 28 25 10 11 14 5 3 9 13 15 12 5 2 4 5 6 6 6 6 7 9 8
9 3 3 10 7 2 1 -0 -1 3 7 9 4 -3 -4 -1 1 1 3 4 1 -2 -0 3 6 7 10 9 5 5 6 8 13 10 6 22 27 10 12 9 -19 -8 30 22 2 9 12 4 7 13 18 17 6 -0 3 4 4 5 3 3 7 10 8
3 6 6 4 1 2 2 -2 -1 2 3 7 7 2 -1 1 3 3 4 4 0 -4 -1 4 4 10 22 19 6 5 11 11 12 6 1 23 44 33 25 9 -33 -30 18 25 5 11 15 2 -4 3 15 17 4 -2 2 2 1 4 2 2 9 11 6
4 10 10 4 -1 2 2 -0 1 1 -0 2 5 6 4 3 3 2 -0 1 -0 -5 -3 3 4 11 23 20 6 3 8 10 14 17 16 30 63 85 76 35 -3 1 24 27 19 15 15 14 5 -1 8 12 1 -3 2 2 3 4 1 2 9 8 2
4 3 6 2 -0 2 2 0 0 -0 1 0 1 5 6 4 1 -2 -4 1 2 -2 -3 -2 -0 5 9 7 2 -2 1 10 15 21 27 20 17 37 47 21 0 10 23 30 34 22 11 19 18 5 8 9 -2 -3 3 2 4 5 1 4 9 6 1
3 -2 4 3 1 2 1 1 -0 -1 -0 -1 -1 4 4 2 1 -1 -0 3 2 -0 -1 -4 -4 -0 1 3 5 4 4 8 10 15 22 13 -11 -16 3 12 7 10 17 24 38 38 21 17 20 17 13 7 -2 1 7 5 6 8 4 4 9 5 0
2 1 8 6 4 4 3 1 -1 3 9 9 9 9 3 1 2 -1 -0 4 3 -1 -4 -4 0 1 -1 -2 1 8 10 4 5 14 13 10 5 -5 -3 8 5 3 10 15 32 53 41 19 22 27 18 9 3 5 8 6 7 9 6 7 7 1 -1
3 5 6 4 5 4 1 2 5 12 15 10 7 4 -5 -5 2 1 -0 5 6 -1 -7 -6 0 2 4 6 4 4 5 -0 3 14 15 16 17 2 -6 6 5 -1 3 6 24 58 59 34 28 26 11 3 8 11 8 7 10 9 8 9 1 -5 -1
3 6 3 0 5 9 9 11 12 8 5 5 4 -2 -10 -8 4 7 3 4 5 0 -5 -5 -2 2 7 13 10 2 -0 2 6 11 16 20 15 -3 -12 -9 -10 -6 8 10 15 44 60 41 18 6 -1 2 9 8 3 6 12 10 9 9 -1 -3 3
2 10 10 3 1 4 1 -2 -2 -3 0 3 -4 -11 -9 -3 7 12 6 5 6 -1 -6 -6 -5 0 9 9 5 1 -1 1 6 12 18 16 10 8 4 -8 -14 1 19 18 13 29 48 34 1 -13 -3 6 7 7 8 13 14 10 9 6 -2 3 5
6 9 12 4 -2 2 1 -2 1 2 1 -2 -10 -7 3 5 7 10 3 -1 2 -4 -6 -4 -9 -5 11 10 -0 -1 0 0 4 12 17 8 -1 8 18 9 0 4 9 12 15 20 26 19 3 4 17 17 9 10 15 15 13 13 12 6 6 14 7
10 8 10 5 -1 5 11 10 3 -6 -7 -2 -1 1 5 2 3 6 -1 -6 -1 -1 -3 -4 -9 -4 12 11 -1 -1 4 4 6 10 12 8 5 12 19 12 2 2 8 14 18 18 14 9 6 17 30 26 18 18 18 12 9 13 12 8 12 15 5
4 6 9 8 2 2 8 6 -5 -12 -5 3 4 1 2 5 6 5 -0 -3 2 6 3 -4 -8 -1 11 9 0 4 10 7 3 6 9 11 12 12 8 2 2 13 24 27 25 22 14 7 7 17 26 26 21 21 20 11 6 10 11 3 -0 2 4
4 4 6 9 7 2 3 2 -4 -3 4 8 10 10 10 12 8 2 -1 1 3 3 -1 -6 -5 1 9 8 2 6 14 9 0 4 8 5 4 5 7 13 18 19 17 20 27 26 16 17 26 28 24 21 18 19 19 17 16 17 16 8 4 9 12
-0 -5 -3 5 10 8 7 5 2 5 11 10 11 10 5 4 4 -0 -2 0 1 -2 -5 -4 1 4 8 10 7 9 14 7 -1 4 9 5 4 10 18 25 26 20 14 18 28 29 25 27 29 23 16 11 9 10 13 16 20 22 21 18 16 15 12
2 -3 -3 3 7 9 9 8 6 11 14 8 5 7 5 2 4 5 3 -2 -4 -1 -1 -0 4 9 12 11 9 10 11 5 1 6 9 7 7 13 19 17 15 19 22 18 12 12 22 32 27 16 5 -2 1 6 -4 -17 -14 -2 7 10 9 8 10
17 14 12 11 11 12 14 14 15 21 21 12 8 14 20 19 15 11 4 -5 -6 2 6 6 9 16 17 13 10 10 10 6 5 7 7 7 8 12 15 12 10 16 17 9 -2 -4 14 37 33 4 -24 -28 -6 13 7 -6 -4 5 11 12 10 12 15
12 11 10 7 4 3 4 5 9 14 15 13 14 20 25 25 17 9 1 -2 2 7 8 7 11 16 17 14 12 12 10 7 7 7 5 7 11 15 16 15 18 19 10 -1 -5 -10 -2 21 33 17 -4 -9 -1 5 10 20 26 22 19 17 15 15 14
7 7 6 2 -2 -4 -7 -8 -1 7 10 11 17 24 28 26 18 9 4 2 3 5 7 11 16 18 17 14 11 9 8 5 5 7 7 10 15 18 17 15 16 15 5 -1 3 1 -9 -8 4 14 14 10 6 6 13 23 21 14 14 14 12 13 11
7 3 -1 -6 -6 -5 -8 -10 2 20 25 22 21 21 22 21 15 9 8 10 11 16 21 25 24 19 15 13 10 9 7 5 6 7 7 9 10 9 9 8 9 13 15 16 16 8 -9 -16 -5 7 6 1 4 12 15 13 9 9 12 12 11 11 8
2 -2 -3 -3 -3 -3 -3 -2 7 20 28 34 39 37 30 24 21 22 29 33 32 30 29 27 23 17 13 11 9 7 6 7 10 9 6 6 8 8 9 11 13 17 19 10 -3 -11 -11 -2 8 7 3 7 14 14 8 5 6 9 11 12 13 10 5
-3 -8 -9 -5 -2 2 11 15 9 8 18 30 37 39 35 32 28 27 28 26 23 20 16 13 11 10 9 8 7 6 7 8 8 4 1 2 5 8 10 10 8 3 -4 -13 -16 -7 5 11 6 3 15 25 17 3 2 7 10 12 16 17 14 9 5
4 -4 -12 -10 -1 7 16 18 11 12 25 31 27 24 22 19 13 9 8 9 9 9 8 8 10 10 10 10 9 7 7 6 4 4 4 4 7 9 7 4 0 -3 -5 -4 1 8 11 8 8 20 30 19 -4 -8 8 18 18 20 22 18 11 8 9
8 5 -2 -2 4 10 16 23 25 25 24 21 17 16 11 6 4 4 5 6 7 9 10 10 11 10 9 9 8 8 8 7 5 4 3 3 6 7 4 4 7 7 7 8 11 13 12 12 18 20 7 -12 -13 3 16 16 15 18 18 12 7 7 12
-0 2 1 1 9 19 25 27 23 15 6 4 7 7 2 1 4 7 8 9 10 10 10 9 9 9 9 9 8 6 5 5 6 8 9 9 9 8 6 9 11 10 9 11 13 14 14 14 13 5 -8 -10 3 12 10 9 15 17 12 8 8 11 16

ECMWFFLT1_500_avort_006.txt.gz
Vorticity
1 1 0 -0 3 12 15 10 7 8 8 8 11 13 16 19 21 18 14 11 10 10 10 9 7 9 9 6 7 8 9 10 10 10 8 8 6 6 7 8 7 7 5 4 3 3 5 6 7 6 5 5 5 7 8 7 8 10 11 10 10 10 10
4 1 3 12 19 20 16 11 8 9 8 7 7 10 14 17 20 21 17 12 12 12 11 9 8 8 5 5 8 9 9 10 9 7 6 6 6 7 8 7 5 6 6 5 3 4 6 6 7 9 9 9 8 8 8 8 7 8 9 10 11 12 10
23 13 6 12 17 15 10 5 6 8 7 5 6 10 15 14 14 17 16 12 12 11 10 9 8 5 4 7 9 7 7 8 6 5 6 8 8 7 5 4 5 7 7 6 7 9 8 9 11 13 12 11 9 8 9 10 9 7 8 9 11 14 13
20 14 6 4 2 3 5 4 4 6 5 5 8 13 17 15 13 12 14 12 9 8 8 7 5 6 9 11 8 4 4 6 6 6 6 6 6 5 2 1 3 6 7 7 6 5 4 6 9 14 14 9 7 8 9 13 13 9 7 7 9 12 13
-2 1 3 3 -0 -1 1 1 1 2 3 4 9 15 15 16 16 12 12 12 9 9 9 8 9 11 12 8 4 5 7 8 8 6 6 6 7 6 3 3 5 5 7 9 6 3 2 -1 -1 5 8 3 2 5 6 9 11 9 7 6 6 8 9
0 1 1 2 4 5 2 -1 -2 0 1 2 10 14 11 15 21 17 13 13 12 13 13 12 12 10 7 6 7 10 10 8 6 6 7 5 4 7 6 7 7 2 2 5 5 6 8 8 6 5 3 1 2 5 5 3 3 6 9 8 5 4 5
2 3 3 3 8 12 11 5 -1 -1 -1 1 12 13 7 14 22 18 16 15 13 13 12 11 9 7 8 10 10 10 7 4 5 7 6 3 3 6 9 11 5 -3 -2 4 5 6 10 13 16 14 9 5 -0 0 6 5 -3 -3 5 11 11 7 4
6 5 3 -1 0 3 11 11 1 -1 -1 1 10 11 8 15 20 19 17 14 11 11 11 11 10 9 10 9 7 6 4 2 3 4 4 4 4 1 3 11 9 1 3 8 9 10 10 9 14 19 18 14 6 4 10 7 -3 -5 1 9 14 15 12
0 -2 -1 5 9 1 1 8 4 2 0 1 11 13 9 9 10 10 11 10 12 15 14 13 11 9 7 5 4 6 7 6 5 5 5 7 8 4 2 8 12 11 9 8 8 9 9 3 3 9 8 6 10 11 14 18 14 9 9 14 17 17 18
-3 -2 -1 10 24 17 4 2 3 5 2 3 14 16 10 5 0 -1 4 10 14 13 10 8 7 6 3 4 6 7 10 9 6 9 11 11 11 8 4 0 -0 2 5 6 4 3 9 12 19 33 28 15 14 10 14 30 25 -0 -5 14 22 14 14
4 3 1 5 21 26 17 9 7 8 3 2 11 14 13 10 5 3 7 11 11 8 7 5 4 3 1 4 8 8 10 9 8 13 15 13 9 8 9 5 -2 -4 -3 1 -1 -4 7 16 21 32 31 25 31 33 35 45 33 4 0 21 28 14 8
1 0 3 7 12 15 17 15 11 8 3 3 8 9 11 14 12 11 11 12 9 7 6 4 3 2 1 4 6 5 7 7 9 12 7 4 5 4 9 13 11 4 -5 1 9 2 3 9 8 14 21 25 36 39 34 32 26 16 16 25 29 19 9
6 11 11 8 6 7 10 8 5 5 5 7 9 8 10 13 12 11 11 10 7 4 3 3 2 2 2 3 1 1 3 0 2 4 -0 -1 -1 -6 -2 4 5 -1 -10 -2 10 1 -1 11 17 24 28 22 17 6 -8 -9 1 9 13 20 29 25 14
9 13 12 8 5 5 7 6 4 6 9 11 12 9 10 11 9 10 9 6 3 2 3 3 2 3 3 2 -1 -2 -1 -3 -2 2 3 6 4 1 2 -3 -8 -3 3 5 -2 -10 2 19 18 14 14 10 10 1 -15 -20 -10 -0 4 12 23 28 23
-1 4 8 8 7 7 7 6 5 7 10 14 12 9 10 10 9 10 8 5 3 3 3 2 3 4 4 3 1 -1 -1 -2 -2 0 1 3 7 13 16 9 8 18 24 20 9 1 8 14 7 5 9 11 13 15 13 8 1 -2 1 9 18 26 33
-1 6 7 5 8 9 7 5 4 6 9 11 11 10 10 10 11 11 8 5 3 1 1 1 2 4 4 4 4 1 0 0 -0 1 -0 -3 4 15 18 17 21 21 12 10 15 11 6 5 4 7 10 10 8 9 13 14 12 9 10 17 18 20 32
6 12 9 7 10 8 6 5 3 5 9 11 12 10 7 7 8 8 7 7 6 4 3 0 -1 2 3 4 4 1 2 4 2 1 -0 -3 1 6 4 2 7 5 -2 -2 4 6 5 7 8 8 8 7 8 7 7 15 26 21 8 13 20 19 30
8 10 5 6 14 14 8 3 2 6 11 12 11 9 7 5 3 4 5 5 5 4 4 2 1 2 1 2 3 -1 -3 3 7 5 4 2 0 0 1 1 2 2 0 -3 -5 -0 9 13 10 9 8 6 6 9 9 19 31 18 -3 6 23 20 26
12 10 4 7 17 18 9 3 5 9 9 7 6 6 5 2 1 3 4 3 4 4 2 3 10 16 14 7 1 -3 -4 3 9 7 4 3 2 3 6 4 3 4 4 1 -4 -2 8 16 14 11 10 8 7 8 9 15 23 16 4 11 21 20 20
18 14 10 11 12 12 11 12 14 11 4 1 1 1 1 -1 -1 1 1 0 3 4 3 8 16 22 19 10 2 0 3 9 11 8 7 8 6 4 5 3 3 3 3 2 -1 -3 5 14 13 9 10 9 8 10 12 14 17 17 16 17 17 20 22
18 13 8 6 5 8 13 16 20 18 8 2 1 1 1 -1 -1 0 1 1 3 3 4 10 12 5 -1 -2 -0 0 2 6 7 9 12 13 8 6 7 6 5 4 1 -0 -3 -5 2 13 13 10 12 10 8 11 14 14 16 17 17 19 17 19 23
13 10 4 -0 4 8 6 5 12 14 7 1 0 -0 -2 -2 -1 0 -0 -0 3 6 4 3 4 -5 -14 -12 -4 1 3 3 3 8 11 10 9 7 6 4 4 6 5 3 0 -5 -3 8 15 13 12 9 7 11 13 13 16 16 11 13 20 22 22
12 11 1 -5 2 7 4 2 4 4 1 -1 -0 -0 -1 -2 -4 -5 -3 -2 -0 4 5 5 8 1 -12 -13 -4 2 6 7 8 11 10 8 8 4 2 2 1 1 2 4 7 3 -4 3 16 16 12 10 8 11 14 11 12 14 9 10 18 23 25
15 11 1 -4 -1 4 5 5 4 2 2 1 1 1 1 1 -1 -1 5 6 -0 1 4 4 7 7 -1 -2 1 3 6 6 7 7 5 4 4 2 3 2 -3 -2 1 1 7 10 -0 2 16 17 10 10 11 11 12 11 10 10 9 12 17 23 27
14 8 7 4 -0 2 7 8 7 6 4 3 3 2 2 3 2 0 5 5 -0 4 9 3 1 6 7 4 3 4 5 0 -2 1 4 7 7 4 1 -1 -1 2 -1 0 14 18 5 5 18 17 11 13 14 11 9 8 9 9 12 19 25 26 20
10 5 10 10 5 3 5 7 8 7 4 1 -0 -2 -2 -0 0 -1 2 1 -3 3 14 12 4 3 4 5 5 6 4 -2 -4 2 8 12 13 10 3 0 2 4 5 18 33 22 4 9 20 15 12 15 11 8 8 8 9 11 15 20 23 19 7
4 2 5 7 7 6 3 4 6 6 4 2 -1 -1 -2 -2 0 1 1 2 3 8 14 11 3 -0 1 3 4 4 2 -1 -2 2 6 8 11 15 14 10 11 15 21 30 29 12 7 20 23 14 13 13 7 5 9 11 11 12 12 11 8 0 -9
-0 2 2 1 6 8 6 5 4 3 4 4 2 3 2 -1 -0 1 2 6 10 11 11 6 1 -0 -0 -0 2 3 -0 -3 -0 6 8 7 12 24 29 21 17 20 19 15 12 13 22 24 16 9 9 7 4 6 10 14 15 12 10 7 1 -6 -7
0 2 1 0 4 6 7 8 6 5 8 8 7 8 8 7 6 4 4 6 7 9 10 6 0 -1 1 3 6 2 -4 -3 5 9 8 8 19 32 31 19 16 19 19 19 23 26 24 15 7 7 8 5 5 7 9 11 9 4 3 4 3 6 14
3 3 1 1 3 4 6 7 7 7 7 8 9 10 10 10 8 4 0 -0 3 8 8 4 2 5 6 4 3 -1 -0 7 12 11 9 15 24 28 22 18 23 27 25 25 24 17 10 7 6 7 7 5 5 6 6 6 4 3 6 10 12 17 21
5 5 7 6 1 -1 0 2 6 11 11 10 12 12 10 9 10 15 19 17 12 7 2 2 7 7 3 0 1 6 14 18 14 11 15 22 25 23 20 19 20 18 14 12 11 9 7 8 8 7 7 5 5 5 5 6 8 11 11 11 13 15 15
10 10 10 6 -0 1 8 10 11 13 11 10 10 6 2 2 6 14 23 25 19 10 6 9 9 4 2 2 2 10 19 18 13 15 22 24 22 18 14 11 8 7 7 7 7 7 7 6 6 7 6 4 4 6 8 11 13 11 10 12 13 13 14
12 10 8 5 3 8 15 14 12 9 5 3 2 -2 -2 4 10 12 13 13 13 13 12 10 8 7 7 -0 -5 7 20 17 12 15 17 15 12 8 5 6 6 6 6 6 5 5 6 6 7 7 5 5 7 9 10 10 6 3 10 16 12 9 13
6 5 7 5 3 5 8 4 -0 -1 -1 0 2 3 6 10 10 9 8 7 9 15 15 11 8 9 4 -5 -3 14 21 13 8 10 9 6 4 3 3 5 5 4 3 3 3 4 4 5 7 8 7 8 10 12 12 12 10 7 10 11 6 7 14
5 5 6 7 9 10 9 1 -6 -6 0 7 9 7 7 6 3 5 9 9 8 11 12 8 5 4 0 0 12 23 18 7 4 6 4 3 2 2 3 4 5 6 5 4 2 2 4 7 8 8 8 10 12 13 12 11 10 7 6 9 13 17 17
9 6 5 8 9 5 4 7 10 11 11 9 8 6 4 5 6 7 9 7 5 7 11 10 6 3 3 9 20 22 11 4 5 6 5 6 6 5 5 7 7 6 5 3 3 4 6 8 8 8 9 11 11 8 4 3 5 8 13 18 20 17 12
8 7 7 5 5 9 19 24 18 9 4 2 5 9 10 10 10 8 8 8 5 4 8 13 12 8 8 15 20 16 7 5 8 10 10 8 7 6 7 7 6 5 5 4 6 9 11 13 13 11 10 9 7 4 4 9 15 20 20 18 14 9 6
10 12 11 12 17 28 33 22 3 -4 2 7 8 8 7 6 6 4 5 6 4 4 11 19 16 10 11 16 14 9 7 9 10 10 9 7 6 7 7 5 4 6 7 6 9 13 15 14 11 9 7 8 8 9 14 19 22 20 15 12 9 7 5

ECMWFFLT1_500_avort_009.txt.gz
Vorticity
9 9 14 7 1 6 10 9 10 12 13 13 12 11 13 13 13 13 11 11 10 9 8 8 8 8 8 7 6 7 8 9 8 6 8 9 9 8 6 4 5 8 8 7 6 7 9 9 7 7 6 5 4 5 8 12 12 11 9 8 8 10 13
9 12 13 1 1 11 14 16 17 15 17 20 19 18 16 15 15 15 15 14 11 10 9 8 9 8 8 7 7 9 10 7 5 6 8 8 7 6 6 6 8 9 6 3 3 5 6 5 6 6 6 8 9 6 5 6 6 5 3 5 9 11 11
9 12 8 -0 9 14 8 11 16 16 19 16 15 15 12 13 15 15 15 16 14 13 11 9 9 8 7 8 9 9 8 5 5 7 8 7 6 6 7 9 10 9 7 6 6 3 -1 1 5 7 8 10 10 10 10 10 10 9 4 3 6 8 10
6 11 9 4 8 7 2 5 4 5 7 5 5 8 9 12 14 13 13 15 16 16 15 12 9 9 8 9 9 7 4 5 7 8 8 6 6 8 9 9 9 8 6 7 5 -1 -4 0 5 9 11 9 5 4 5 6 10 12 10 8 7 5 4
12 15 14 6 7 5 -1 -0 -1 -0 1 1 1 1 4 12 16 16 15 14 17 17 15 12 8 8 9 8 6 5 5 7 8 7 7 8 10 11 8 5 4 5 7 8 7 3 2 4 6 6 7 7 7 7 10 12 13 15 12 9 9 10 10
8 15 15 3 3 4 1 -0 1 3 2 -1 -1 -2 1 9 16 18 14 14 18 17 13 11 7 6 6 5 5 5 7 8 8 8 9 10 10 7 4 3 2 2 3 3 5 8 6 5 7 4 0 4 8 8 9 11 18 27 26 17 11 9 9
15 7 6 5 1 -2 1 1 -2 3 8 5 1 -1 -2 2 12 17 14 13 17 16 13 10 7 7 5 5 7 8 9 9 9 11 10 7 5 4 5 4 4 3 -0 -0 6 9 8 7 5 -2 -5 0 5 7 9 12 19 30 36 36 34 28 20
34 11 -4 0 1 -1 3 3 1 4 10 12 6 1 -1 -0 8 15 14 14 16 16 15 12 11 12 10 9 10 10 9 10 11 10 6 3 1 3 3 3 6 4 -1 2 3 -7 -7 1 2 1 3 5 8 14 19 24 25 23 27 31 31 33 32
27 19 6 1 -1 5 6 2 4 2 0 6 5 3 5 1 2 12 15 13 14 15 14 13 14 14 12 10 11 11 10 9 8 7 6 5 1 2 3 3 4 4 4 11 12 4 3 4 -1 1 2 -2 7 15 12 18 19 8 3 -3 -9 -1 10
13 11 6 4 1 6 5 -2 1 1 -2 1 -1 1 9 3 -1 11 16 9 4 6 8 10 12 14 14 12 12 12 10 6 6 7 5 3 2 6 8 3 2 7 11 11 7 6 6 -3 -7 6 8 0 10 16 7 10 15 6 -2 -9 -12 -2 3
32 29 12 3 1 2 0 -2 4 6 5 6 3 3 10 4 -2 7 18 12 2 2 6 5 8 14 15 13 11 10 7 6 6 4 1 1 6 9 6 3 4 3 2 1 1 8 13 11 15 27 25 13 13 14 6 7 12 10 8 5 4 8 9
12 29 15 -2 2 6 -1 -1 9 12 11 14 13 9 7 5 -1 3 15 16 7 6 9 5 8 16 16 10 8 8 7 5 0 -1 2 4 6 8 7 11 15 7 5 12 17 20 23 21 18 15 12 9 7 6 5 7 9 7 6 7 7 8 10
-8 7 5 -2 4 6 -0 3 13 14 14 16 14 9 6 3 0 4 14 17 10 8 9 7 10 16 13 5 5 6 3 -3 -6 1 9 5 1 5 6 5 6 2 5 12 10 7 8 6 3 -1 0 4 7 9 9 7 6 7 6 6 7 9 14
2 5 0 -3 1 2 2 8 12 12 12 11 8 5 3 2 2 7 15 16 10 7 7 8 10 12 9 3 3 5 -1 -5 0 9 11 6 3 4 2 -1 0 2 6 8 4 3 4 4 3 1 -2 -2 2 11 17 14 8 6 7 6 6 8 13
11 23 14 1 -3 0 5 8 8 8 8 8 6 3 2 3 7 12 17 16 11 6 6 7 8 9 7 3 2 4 3 4 10 12 7 5 3 2 3 7 10 10 12 12 9 5 3 2 3 3 0 -3 -4 -1 10 19 17 9 5 6 7 8 10
7 13 13 10 4 2 5 6 5 5 6 5 3 3 4 5 8 13 19 17 9 4 4 5 6 6 6 6 5 6 7 7 8 7 3 1 0 1 6 10 10 9 10 12 11 8 6 4 4 3 2 2 1 -1 1 11 20 17 10 7 7 8 10
7 -1 4 12 10 4 0 -0 1 2 5 5 2 3 5 4 6 13 16 10 3 3 4 4 7 6 6 7 7 7 9 9 8 7 4 1 -0 0 3 5 6 7 7 8 8 5 3 2 1 1 1 3 6 5 1 2 13 21 14 6 7 8 10
7 4 6 9 8 8 3 -1 1 2 3 4 2 3 4 2 5 11 13 7 3 4 4 2 5 4 3 7 9 13 19 20 17 13 6 2 -0 1 2 2 4 7 7 7 8 5 2 1 -0 -1 -0 1 1 3 6 4 7 16 15 6 6 8 9
9 4 5 5 5 12 13 7 4 3 3 3 2 2 2 2 5 10 10 6 3 2 1 2 5 5 8 13 13 13 13 12 10 5 -0 -2 -1 2 4 3 5 7 5 5 4 2 2 1 1 1 -0 1 1 0 6 9 6 13 17 8 5 10 12
4 5 7 8 4 4 7 8 6 6 5 3 1 2 2 1 3 7 7 4 4 4 3 4 4 7 14 19 12 3 -1 -2 -2 -4 -7 -4 -1 2 3 4 5 4 2 4 2 3 5 2 1 3 -1 2 5 -1 5 14 12 13 16 9 6 12 13
3 9 9 12 12 8 5 4 4 5 6 5 2 2 3 3 3 6 5 3 4 5 4 4 4 3 5 6 2 -0 0 2 2 0 -1 -1 0 1 2 2 3 0 -2 1 1 4 9 8 7 5 1 3 4 1 12 25 18 11 15 13 9 11 11
6 7 7 9 6 4 5 4 2 3 7 8 5 3 3 3 3 4 3 2 3 2 1 3 2 -3 -7 -7 -2 3 4 3 3 3 4 5 3 2 2 1 2 2 -0 -0 2 3 6 8 11 11 8 7 4 8 26 33 18 11 16 14 9 9 10
1 1 12 16 4 -5 1 5 4 5 7 7 5 5 6 5 5 5 3 1 1 1 1 -1 -5 -6 -5 -2 3 8 8 7 6 2 1 4 2 0 2 4 4 4 1 -1 2 6 6 6 9 11 12 12 11 17 27 23 12 12 17 13 8 9 10
8 8 18 24 13 1 1 5 6 7 7 6 8 11 10 7 5 4 2 2 2 1 -1 -3 -2 2 3 1 2 4 4 8 12 7 -0 -0 1 -0 2 5 5 5 1 -2 2 9 10 10 11 14 17 17 16 17 16 11 12 17 16 11 8 10 11
14 17 20 20 13 4 1 6 7 4 2 5 10 13 11 7 5 3 3 3 2 -0 -1 -1 2 3 1 0 2 2 1 5 13 14 6 1 -1 -2 1 5 6 3 -2 -2 4 10 13 16 19 21 20 16 14 14 12 12 17 16 11 9 8 9 12
14 19 23 20 12 4 2 6 5 2 3 7 9 9 6 5 5 4 2 1 0 1 1 1 2 2 1 3 3 4 5 6 9 11 8 2 -3 -2 3 6 6 3 -0 3 12 17 17 20 21 19 18 17 17 18 17 16 16 12 9 9 7 8 11
13 19 24 20 14 9 8 8 5 2 1 2 4 5 3 3 3 1 0 2 2 3 4 5 4 2 2 3 4 7 10 9 9 9 5 -1 -3 1 5 4 3 5 7 11 19 22 20 19 20 20 23 25 24 21 19 16 12 8 8 8 8 7 8
16 23 22 17 17 18 14 8 3 2 3 1 1 3 2 1 1 1 1 2 2 2 2 1 -1 -0 4 7 9 9 7 6 8 7 5 6 6 4 2 2 3 7 13 19 24 24 20 19 20 20 19 19 17 13 13 12 9 6 7 9 9 7 6
19 24 22 18 20 19 13 6 0 -0 2 1 1 4 6 4 3 3 3 2 2 3 1 1 6 13 16 12 4 -4 -5 -0 2 2 8 14 12 6 3 1 1 6 15 21 23 20 16 14 12 11 9 8 9 9 9 10 7 6 7 8 8 8 9
19 22 21 19 17 12 8 7 5 2 -1 -1 2 4 7 8 6 4 5 5 3 3 4 9 15 14 7 1 -1 -1 4 13 19 23 24 16 6 7 7 -1 -3 6 16 18 16 13 10 8 6 6 6 6 8 9 8 7 6 7 8 10 11 9 8
11 15 17 18 17 15 12 11 10 8 5 5 4 2 2 5 6 5 6 6 4 5 9 11 6 -2 -7 -2 8 13 14 16 23 27 20 7 3 9 7 -3 -2 10 16 14 11 8 6 5 4 5 6 8 9 8 6 6 8 8 8 11 11 6 5
7 10 13 16 18 19 16 10 5 4 5 6 7 7 5 4 4 5 5 6 7 9 11 7 1 -2 1 7 11 12 10 11 14 14 8 4 7 8 3 -2 4 14 17 11 6 4 3 3 3 5 6 8 7 5 6 6 4 4 9 14 11 4 6
9 11 12 14 18 18 13 6 2 1 3 3 5 6 5 4 7 8 8 8 9 9 5 3 3 4 6 9 9 6 4 5 8 9 7 6 6 4 1 2 7 14 17 10 2 2 4 3 4 6 7 7 7 7 8 6 4 12 20 17 6 1 5
11 14 13 14 18 18 13 7 5 3 3 4 4 4 5 7 9 9 10 11 9 5 0 -2 -0 2 5 9 7 3 2 3 4 6 7 7 7 5 2 4 9 13 15 9 3 5 8 7 7 8 7 8 9 9 8 7 10 17 15 3 -2 3 8
9 11 11 12 15 15 14 11 6 2 2 4 6 5 5 7 10 11 12 9 3 2 3 2 1 4 6 5 2 1 4 5 3 3 4 6 9 9 5 6 10 12 11 9 7 10 10 8 7 7 7 9 9 8 7 7 8 9 6 1 4 9 10
13 10 8 9 10 10 11 10 6 2 1 2 7 11 10 8 8 4 -1 -2 1 3 2 -2 -0 5 5 2 3 7 5 1 2 5 4 3 7 10 10 9 9 9 11 11 11 11 10 7 6 7 7 8 8 6 6 6 7 8 8 8 9 10 11
12 10 11 14 15 14 13 12 10 7 6 7 11 14 10 5 2 -2 -2 4 7 3 -0 -1 1 5 4 2 5 7 4 3 7 8 2 2 9 12 9 6 6 8 12 13 11 9 7 6 7 7 8 8 7 7 9 11 12 12 10 10 11 15 20
11 10 11 11 11 12 11 11 10 8 8 11 10 6 2 3 4 4 6 8 6 5 10 12 8 4 4 4 4 4 4 6 8 5 4 11 17 13 6 4 6 10 13 12 9 6 6 6 7 9 10 10 9 11 13 12 11 9 9 11 14 18 21

ECMWFFLT1_500_avort_015.txt.gz
Vorticity
9 5 5 4 4 6 9 9 2 -3 2 4 5 5 4 5 10 14 13 10 8 6 5 9 10 9 8 8 7 7 7 7 5 5 5 4 5 5 6 9 8 9 13 10 5 9 11 8 6 6 10 10 3 2 0 -4 0 8 8 6 7 9 8
7 -0 5 7 3 5 10 8 -0 -1 3 4 4 4 2 4 10 14 13 11 11 9 5 6 9 9 8 7 7 7 6 7 6 5 4 4 4 6 8 9 9 13 13 7 8 12 9 5 3 5 10 3 -5 2 1 -3 9 18 13 8 6 6 6
12 -1 -1 6 5 4 9 9 4 3 3 2 5 5 2 4 12 15 15 14 14 12 9 6 7 10 10 9 7 6 6 6 6 5 4 5 6 7 10 10 12 15 11 8 12 10 4 2 1 3 7 2 1 9 7 7 16 15 8 6 4 4 4
14 11 7 10 9 6 7 9 11 14 11 5 4 5 4 6 12 16 15 13 13 14 12 9 10 11 12 12 11 10 9 7 6 6 5 7 8 9 11 14 16 13 9 10 10 5 2 3 5 7 10 9 10 13 12 12 11 6 5 6 5 6 6
9 3 6 14 12 8 7 4 10 19 17 10 6 4 5 7 11 14 12 8 8 12 13 11 12 14 14 16 17 16 16 14 11 9 10 10 10 11 13 16 16 12 9 9 6 4 5 7 10 13 15 15 15 14 11 7 4 2 3 3 3 4 4
16 3 11 21 14 8 7 5 11 21 18 12 9 5 6 12 16 14 10 7 8 10 12 11 10 12 13 15 16 19 21 20 17 13 13 13 12 13 16 17 14 9 7 6 3 4 7 8 12 14 13 12 9 6 3 0 -1 -0 -1 -2 -2 -2 -2
15 9 15 15 10 10 10 8 9 13 12 8 6 6 10 15 16 12 8 7 6 7 10 9 8 10 12 13 13 17 20 20 17 14 13 14 15 16 16 15 12 7 4 4 4 6 10 11 11 8 4 3 2 1 0 0 0 0 -0 0 1 1 2
1 9 16 8 6 9 9 8 9 13 13 5 1 8 15 17 14 12 9 5 3 5 8 7 8 10 12 13 13 14 16 16 14 13 14 15 16 16 14 13 10 5 3 5 9 12 12 8 4 1 1 2 4 4 3 2 3 2 2 3 3 4 5
-5 4 17 19 14 6 1 -1 3 15 20 11 6 9 11 12 14 11 7 4 3 3 5 6 8 10 10 12 13 12 12 13 12 13 16 17 15 13 13 12 7 4 7 10 11 8 3 0 0 2 3 4 5 5 4 4 3 3 2 2 2 3 3
19 21 28 28 14 -0 -4 -5 -4 7 15 14 11 8 4 3 4 4 5 8 8 3 2 5 7 9 8 8 9 9 8 10 12 13 15 14 11 11 12 10 6 6 9 8 4 2 0 1 3 4 5 6 5 5 5 5 4 3 4 4 5 5 5
23 32 41 28 5 -3 -3 -4 -3 1 9 14 12 7 5 2 2 6 10 10 8 4 2 4 7 7 6 5 4 3 5 9 12 14 13 10 8 9 10 8 7 7 7 4 2 3 4 3 3 4 6 7 7 6 5 4 4 4 4 6 7 7 7
2 8 22 16 9 8 3 1 3 3 6 13 14 10 6 5 6 9 8 6 5 5 2 3 7 7 5 5 4 1 5 12 15 12 9 7 6 7 6 6 8 7 4 3 3 2 3 4 7 9 11 11 10 8 7 4 3 1 0 1 4 5 5
3 2 6 5 8 5 -3 1 7 4 3 6 11 9 4 4 7 7 6 3 1 3 3 3 7 8 6 7 6 4 8 14 15 9 5 6 5 6 7 9 8 5 2 2 1 2 6 10 11 12 11 10 8 6 4 2 0 -1 -2 -3 -1 3 5
5 9 11 7 5 2 0 5 6 1 -0 4 10 9 1 1 3 2 3 4 2 5 7 7 9 8 7 10 10 8 10 13 12 7 5 5 5 7 9 10 9 5 2 0 2 6 11 11 9 6 3 2 1 1 2 2 1 0 -1 -2 0 3 5
3 5 13 11 3 0 1 2 3 1 -1 2 9 10 6 4 2 -2 -3 -1 4 11 12 11 13 11 8 11 11 9 10 11 10 9 7 5 6 7 6 7 6 2 -0 1 4 8 8 4 0 -2 -3 -2 -0 1 2 3 2 1 1 2 3 5 6
8 -1 4 12 9 8 8 3 -1 -0 1 2 3 6 10 10 5 1 -2 -3 -0 7 10 11 13 14 12 12 10 8 9 10 10 8 5 3 3 3 4 6 6 2 -0 2 5 5 1 -4 -5 -2 -0 2 2 3 4 4 3 2 3 4 5 7 8
15 6 -3 -0 1 1 3 1 -1 4 11 11 4 3 12 14 7 3 2 -1 -1 5 10 9 10 14 15 13 9 7 9 11 9 4 2 3 6 10 14 16 11 4 0 -0 -0 0 -1 -1 2 5 5 5 4 5 6 5 4 3 3 5 8 10 11
12 15 6 2 1 1 1 -2 1 5 6 7 2 1 12 19 17 14 9 1 1 8 9 4 6 15 19 14 9 8 8 7 5 4 6 9 11 13 15 13 6 -1 -3 -2 0 2 3 4 5 5 5 5 6 8 8 6 4 2 1 5 11 13 14
7 2 4 6 4 7 8 5 4 2 -3 -1 2 3 6 8 9 11 9 4 5 8 6 1 3 13 19 15 9 7 6 5 6 8 9 8 6 6 7 6 4 3 3 4 5 4 4 4 3 2 3 3 3 7 8 6 2 1 -0 4 12 16 16
7 -3 -1 3 3 8 15 13 11 10 8 4 6 8 3 -3 0 5 5 6 7 5 3 2 1 7 17 18 11 7 5 6 8 7 3 3 2 2 3 3 2 2 3 2 2 2 2 3 3 2 1 2 2 4 7 6 3 1 0 4 12 16 14
13 14 12 8 5 10 18 18 12 13 16 15 17 19 6 -7 -3 5 6 8 8 4 4 6 3 3 13 19 13 7 7 7 4 1 0 1 2 2 3 1 -0 0 0 -0 2 3 2 2 3 1 1 4 7 6 7 7 4 -0 -0 7 14 13 11
6 15 20 15 5 2 5 7 5 2 -4 -6 5 17 13 1 -0 5 9 10 8 4 5 7 6 5 12 22 17 9 9 8 0 -1 2 1 1 2 2 1 1 1 -0 1 4 3 1 3 2 -0 1 5 11 17 16 11 6 0 -1 8 15 12 8
3 4 8 9 5 2 -1 -4 1 3 -11 -20 -7 11 17 12 5 4 8 9 7 8 6 5 8 8 9 19 20 11 9 7 -1 -2 2 2 2 2 1 2 2 1 1 4 4 1 2 4 1 0 5 7 12 25 27 14 5 1 -1 5 13 12 8
-3 1 4 5 3 3 2 -0 3 8 4 -0 4 11 15 14 7 2 6 7 6 8 5 2 6 8 8 15 18 11 8 6 0 -1 1 1 2 1 1 3 1 0 3 4 1 0 3 5 3 5 11 10 10 19 22 12 6 4 1 3 10 12 8
-5 -6 -5 0 1 -6 -6 3 5 3 5 11 15 16 16 12 4 -1 2 5 5 5 4 1 3 7 7 12 14 9 5 5 2 0 1 2 1 -0 0 1 -1 1 5 2 -1 2 4 4 5 7 8 9 9 11 12 8 7 5 2 2 7 11 10
10 6 -0 1 4 -2 -9 -4 2 -1 -2 4 13 19 16 6 2 4 6 5 2 0 -0 1 4 5 4 10 14 7 1 3 3 0 1 2 1 -0 0 -0 -1 3 5 -0 -0 5 4 2 5 8 7 6 6 6 8 7 6 5 5 6 8 11 11
13 17 20 12 10 13 9 3 5 3 -4 -6 -3 8 18 15 6 4 5 3 -1 0 3 4 4 1 2 11 16 7 -0 3 4 1 2 2 -0 0 1 0 2 4 3 -1 1 5 3 0 4 7 7 6 4 2 3 4 5 7 9 10 12 13 12
16 18 30 29 19 16 9 2 3 3 2 1 -7 -7 9 16 6 1 2 2 1 1 3 5 3 1 6 12 11 5 3 6 3 1 2 1 -1 1 1 1 4 4 0 0 4 5 3 3 6 6 5 7 6 1 -1 1 4 6 8 10 12 13 11
10 13 28 37 34 29 20 12 10 5 3 5 2 -2 -2 -5 -5 -3 -8 -7 5 6 -1 2 5 4 6 8 5 5 7 6 2 1 1 -0 0 2 1 1 5 4 0 1 5 5 3 4 6 6 4 5 4 1 0 -0 -1 4 9 10 12 13 11
2 7 14 16 23 40 43 33 27 21 9 -1 -2 3 -0 -10 -9 -11 -27 -23 6 12 -4 -3 7 7 4 2 4 9 10 6 3 2 1 -0 1 1 1 3 5 2 0 2 3 2 0 1 4 6 3 1 2 5 5 1 -2 3 10 11 13 17 13
2 4 8 5 6 18 26 24 27 30 24 15 6 1 -1 -0 0 -4 -5 10 26 16 -4 -5 5 8 5 2 7 12 10 6 4 1 -0 1 2 1 2 3 3 0 1 4 4 2 0 -1 1 5 1 -3 2 6 3 0 0 3 8 12 19 20 13
8 0 3 2 -4 1 11 17 22 22 19 26 29 15 9 15 6 -10 3 28 29 13 3 1 2 6 8 8 11 14 10 4 1 1 1 2 2 2 2 3 3 2 2 4 3 3 1 -3 1 12 13 3 1 3 1 1 3 5 11 20 24 19 10
9 -2 1 1 -5 -1 4 5 15 21 13 16 24 12 8 30 34 14 10 21 22 15 9 1 -1 5 9 8 9 10 9 6 4 3 4 2 0 3 4 3 3 3 3 3 3 4 2 -1 7 19 16 3 -2 2 4 2 1 8 18 22 17 12 9
9 -4 -3 0 0 6 8 5 12 17 10 16 27 12 -7 8 37 45 32 14 8 12 8 1 4 8 4 6 12 12 8 6 5 3 1 1 3 4 4 4 5 6 7 3 0 2 1 2 10 13 2 -6 -1 3 2 0 3 12 19 17 11 10 10
14 8 4 5 8 11 14 13 10 4 5 21 35 31 11 -5 12 54 62 27 6 11 9 5 14 17 16 22 25 15 3 -1 2 3 2 3 6 4 3 5 3 3 5 1 1 8 6 1 9 11 -2 -6 1 1 -1 4 10 16 19 15 12 12 10
11 13 13 11 12 15 19 24 21 10 6 11 21 35 28 -9 -13 42 74 48 24 23 15 9 19 24 26 27 15 1 -1 1 4 5 3 2 4 3 4 5 1 2 7 6 8 14 5 -3 11 21 9 -1 -2 -4 -0 10 16 19 19 13 10 10 9
14 14 13 13 13 11 10 16 23 18 8 9 22 33 21 -3 5 46 61 39 23 17 9 15 25 16 4 2 -2 -4 3 5 3 4 3 3 5 5 3 4 4 7 9 4 4 9 6 10 31 38 20 5 -1 -4 3 16 21 18 13 8 7 9 9
12 8 13 22 24 27 29 24 22 26 24 20 22 20 17 26 44 46 30 20 22 16 4 9 17 5 -9 -6 1 2 2 1 1 4 5 2 2 2 2 4 7 8 6 3 5 11 11 17 30 32 18 7 1 1 11 20 19 11 7 7 10 11 9

ECMWFFLT1_500_avort_021.txt.gz
Vorticity
2 7 9 11 11 7 3 3 4 4 3 1 2 6 8 6 6 6 5 4 4 4 5 6 8 9 10 9 7 7 8 7 7 6 5 5 5 7 7 7 5 4 5 4 4 6 6 10 13 13 9 5 6 7 3 1 4 7 10 11 7 1 -2
-2 2 7 9 12 15 11 5 3 5 6 5 2 4 8 10 9 8 6 4 3 5 6 7 8 9 11 13 11 9 8 9 8 7 7 6 6 6 6 5 5 4 4 4 5 7 8 11 15 12 6 3 5 5 4 5 7 8 10 7 1 -2 -1
-1 2 5 6 8 16 18 9 2 3 6 6 5 5 9 13 11 6 3 3 3 3 5 6 6 8 10 13 14 11 10 10 8 8 8 6 6 4 4 5 5 4 4 4 6 6 7 13 17 11 4 3 5 7 5 5 8 9 7 2 -2 -0 3
14 12 7 4 6 14 21 15 4 5 8 6 6 7 10 11 6 1 0 1 3 4 6 7 6 7 9 14 16 13 12 10 8 8 6 5 5 5 7 8 6 5 4 3 5 6 9 17 17 8 4 6 7 6 5 6 9 7 2 -1 0 3 3
19 17 13 9 8 13 21 19 10 10 11 7 6 7 10 9 2 0 1 1 4 6 6 6 6 8 11 14 17 15 14 12 10 8 7 5 5 7 8 7 6 6 4 4 6 6 12 18 13 5 5 7 7 6 6 7 6 2 0 2 4 4 3
4 9 15 12 12 17 22 19 11 10 9 7 9 9 9 8 5 3 3 3 5 5 4 5 6 9 11 13 15 15 15 15 14 13 10 7 7 9 8 5 5 6 5 7 6 7 16 18 9 3 5 6 6 7 6 5 2 0 2 4 4 6 6
0 9 13 4 4 16 27 25 13 8 10 11 10 8 5 5 6 5 3 5 7 5 3 5 8 9 10 10 11 12 13 15 16 15 13 11 10 10 9 7 7 8 9 9 6 11 19 15 5 3 5 6 6 6 4 1 0 1 3 5 7 8 7
5 11 7 -4 -3 8 22 30 21 10 11 12 8 5 3 3 6 7 7 9 9 5 4 7 10 9 7 8 9 10 11 12 14 15 14 14 14 12 10 11 11 11 11 8 8 15 17 9 4 3 5 8 6 4 2 1 1 3 6 8 8 6 4
5 7 3 -1 -1 3 13 25 25 16 11 9 8 7 7 7 8 10 13 13 9 5 5 8 10 6 5 8 10 10 11 12 14 16 17 17 18 17 16 16 14 10 9 7 9 16 14 5 3 4 7 8 5 2 1 2 4 8 9 9 5 2 3
8 8 6 5 0 -3 3 13 19 20 16 10 9 11 12 10 7 10 15 14 8 4 4 8 8 4 6 9 9 9 11 13 15 16 18 22 25 24 19 16 12 8 7 8 11 16 11 3 4 8 9 6 2 2 3 4 9 10 7 4 2 3 4
8 10 5 3 1 0 2 7 12 17 17 13 14 16 15 11 8 10 14 12 8 5 6 9 8 5 5 6 6 8 10 13 14 14 18 23 25 20 14 9 7 7 6 8 14 15 7 3 8 9 6 3 1 2 5 9 11 6 3 2 4 5 5
1 5 2 0 5 4 1 4 8 14 14 9 9 13 12 9 9 12 13 11 8 6 6 8 6 4 3 4 5 7 7 10 14 12 13 20 21 13 9 8 5 5 6 9 14 13 6 6 9 6 3 2 1 4 10 12 6 1 2 5 5 4 4
-3 0 2 3 4 0 -1 1 2 9 17 12 5 9 12 10 10 11 11 12 11 10 10 9 6 2 0 1 5 9 7 9 15 12 7 12 17 12 7 7 6 6 6 9 13 10 6 7 6 3 2 0 2 9 12 7 1 3 6 5 3 1 3
-4 -1 5 3 2 2 4 6 3 4 17 23 14 7 7 8 9 9 9 9 7 6 8 8 6 2 1 2 4 8 8 7 12 15 8 5 11 14 11 6 7 7 5 7 12 10 8 8 3 1 1 1 8 13 8 1 3 6 4 2 2 2 3
0 4 13 6 1 6 6 6 6 2 5 18 23 15 7 2 2 3 4 5 5 4 6 9 7 3 4 8 6 5 7 6 7 15 16 9 5 10 15 12 9 7 5 7 11 10 8 5 1 1 2 7 12 8 -0 2 5 4 2 1 2 2 2
2 6 18 11 1 5 6 1 4 5 4 11 22 23 13 1 -3 -1 1 1 4 5 5 8 10 7 7 10 8 3 3 4 4 9 16 18 11 6 12 16 12 7 5 7 10 9 6 3 1 2 5 9 8 1 -2 3 3 1 1 2 2 2 2
-2 2 18 19 9 7 6 -0 -1 2 5 10 18 23 18 6 -4 -3 1 1 3 5 3 5 9 10 10 10 8 4 1 2 4 5 10 19 21 12 9 14 16 9 4 6 9 7 4 3 3 4 6 6 3 -1 -0 2 2 2 1 1 2 2 3
-5 -4 7 14 15 12 7 4 2 -2 -1 9 16 14 15 12 4 1 3 2 2 4 3 2 2 3 7 10 9 6 2 -2 -1 2 6 12 21 21 13 12 17 12 2 5 12 9 3 4 5 4 4 4 3 2 2 1 2 3 1 1 2 2 4
-4 -4 -1 2 6 8 4 6 9 3 2 12 16 11 7 8 9 9 5 2 5 6 4 3 2 2 4 6 8 9 7 2 -1 1 4 7 15 22 17 12 15 13 5 6 11 8 3 3 6 5 3 3 4 2 2 2 2 3 2 1 1 2 5
1 -2 -1 -2 1 3 1 3 8 8 6 9 14 13 3 -4 3 12 8 3 4 4 2 2 3 4 4 2 7 14 15 11 6 3 4 5 8 16 19 17 16 14 8 5 6 7 6 5 7 6 2 2 4 2 -1 0 3 4 4 2 1 3 5
9 5 -0 -5 -2 4 2 -0 -0 0 0 1 4 7 4 0 6 13 9 2 1 1 1 1 -1 1 2 0 5 16 20 16 10 6 6 7 5 9 19 21 16 13 7 4 8 12 9 6 8 6 2 2 3 1 -0 1 5 6 3 2 1 2 5
11 11 7 -1 -1 4 3 0 -1 -2 0 1 -2 -3 -1 2 8 12 7 -2 -1 6 6 2 -1 -1 -2 -2 0 8 14 13 9 6 6 8 6 6 14 20 18 15 9 6 12 13 7 7 11 8 3 3 2 1 1 1 3 4 3 2 1 0 4
10 10 10 7 5 4 1 -0 1 2 3 2 -0 -1 -1 -1 4 12 11 0 0 10 8 2 1 -0 -1 -1 -2 -0 7 8 5 4 6 9 8 7 11 18 19 16 12 11 12 11 11 17 18 8 1 2 1 1 1 1 2 3 3 2 0 1 3
9 8 9 8 8 7 3 0 0 2 3 3 5 6 3 2 4 6 4 -1 -0 4 2 -1 -0 -2 -1 3 4 9 17 15 4 2 5 6 7 8 11 15 17 16 16 16 14 15 21 23 12 2 1 1 1 1 1 -0 0 1 2 2 0 2 3
7 7 7 9 8 5 3 2 1 -0 -1 1 7 8 3 2 8 7 4 4 4 3 4 6 3 -1 0 4 10 21 27 18 6 3 5 6 6 8 9 12 16 17 14 15 17 19 21 15 4 0 2 1 2 3 1 0 0 -0 1 1 0 1 3
7 6 5 7 7 5 3 2 3 4 2 3 8 8 2 1 6 7 8 12 11 7 10 10 3 3 5 4 12 26 24 14 8 4 2 5 6 5 8 11 15 17 16 16 18 16 12 6 2 1 2 1 2 2 1 1 0 0 0 -1 0 1 2
7 5 4 5 4 4 3 -1 1 5 4 3 3 2 2 6 7 5 7 10 7 5 10 10 4 7 9 4 13 27 15 2 8 10 5 7 8 4 5 6 8 15 21 17 11 9 8 4 2 1 -1 0 3 2 2 2 -0 0 1 -1 -0 2 2
11 6 5 6 4 4 4 0 0 2 -1 -1 2 -0 -1 3 4 4 5 4 3 7 14 12 6 6 6 1 10 20 2 -13 2 15 9 8 11 8 5 4 5 15 23 15 4 3 6 3 2 3 1 -0 0 0 1 2 -1 -0 1 -0 0 1 1
15 13 11 11 8 5 3 -0 0 3 -1 -3 0 1 0 -1 -2 -1 -0 -2 1 7 7 3 1 2 3 1 4 13 7 -3 5 15 12 11 12 10 7 6 5 10 18 14 3 0 4 3 0 1 1 -0 0 2 3 2 1 2 1 -0 0 1 -0
10 15 16 18 18 15 11 7 4 4 2 1 4 7 10 13 11 9 7 4 6 8 4 4 4 1 1 1 -0 6 10 -1 -9 -4 4 9 11 7 5 4 3 7 15 18 10 1 1 3 1 -0 1 -1 -1 0 -1 -1 -1 1 3 2 0 2 4
6 9 10 12 15 17 20 21 20 21 19 16 14 13 15 17 16 15 16 15 14 12 9 11 12 7 6 7 5 7 9 2 -3 -0 4 8 12 10 6 4 2 3 7 12 11 4 1 3 3 0 -2 -3 -1 -3 -5 1 3 -4 -2 6 5 3 4
5 3 0 -3 -2 4 11 14 15 18 19 15 13 10 8 8 7 6 8 9 10 11 10 8 7 4 3 4 3 5 8 8 10 9 5 8 16 16 11 6 2 1 2 4 5 3 1 2 3 4 2 -1 0 -1 -1 10 11 -10 -16 1 8 2 1
-3 -3 -1 -2 -3 1 6 6 4 5 7 8 9 8 7 10 11 9 8 7 6 7 7 6 6 3 2 3 4 6 6 5 5 5 4 10 17 18 15 10 3 -2 -1 2 1 -1 1 2 1 2 4 1 1 3 7 17 17 -6 -15 2 8 0 1
-8 -8 -3 0 2 4 7 8 6 5 6 6 7 8 9 11 10 10 11 12 12 13 11 9 8 6 6 7 6 5 3 3 6 6 3 2 5 7 11 18 21 15 7 4 2 -2 -2 2 1 1 5 4 3 3 5 10 9 -11 -18 3 12 -0 0
-1 -3 -5 -3 0 3 7 8 6 6 6 5 6 7 6 5 6 8 11 12 14 16 16 14 11 8 7 7 7 6 4 6 11 13 11 9 10 10 10 14 24 26 14 5 4 3 0 -0 -3 0 7 7 4 3 -1 4 6 -17 -31 -8 9 1 4
4 2 -1 -2 -2 -2 0 2 2 4 5 3 3 4 1 -0 1 3 6 12 14 13 15 18 17 16 15 13 13 14 13 12 13 14 14 13 12 13 11 7 15 32 33 15 0 0 8 9 1 -3 -1 -1 -3 -4 -8 -3 10 1 -15 -6 5 0 7
2 2 2 -0 -1 -1 -3 -3 -0 4 6 6 7 7 6 6 4 1 3 9 13 15 18 17 15 16 18 17 15 14 12 9 8 7 9 13 13 16 17 11 8 19 29 25 10 -5 -3 15 21 10 2 1 -0 -2 -5 -5 4 10 5 2 3 4 10
10 10 9 4 3 3 -2 -3 2 5 6 8 8 9 13 14 12 13 11 8 10 14 14 11 11 11 12 11 11 12 11 10 8 6 5 6 5 6 12 16 15 14 14 21 20 -4 -18 9 36 25 6 4 3 1 4 5 2 5 5 -0 1 9 12

ECMWFFLT1_500_avort_024.txt.gz
Vorticity
1 3 0 -3 -1 6 10 10 6 4 4 3 4 4 3 2 3 5 7 8 6 3 3 5 6 7 6 5 5 3 4 4 5 6 7 7 7 8 9 7 7 5 3 5 4 2 3 6 6 6 10 13 10 7 7 7 3 1 4 6 8 9 3
2 4 6 3 1 1 5 14 14 7 3 2 3 3 2 2 2 6 8 8 7 4 4 5 6 8 9 9 10 10 8 6 5 6 7 7 7 8 9 7 6 5 4 4 5 4 4 4 6 7 10 13 12 8 7 6 3 3 5 5 8 7 0
5 6 6 5 5 1 -1 7 14 13 8 3 3 2 2 2 2 7 10 8 8 5 4 6 7 9 8 7 9 12 13 11 7 7 8 8 7 7 8 7 7 5 3 5 7 5 2 2 6 8 10 14 12 7 6 5 4 4 5 6 7 4 0
7 1 -0 4 7 4 -1 -0 6 15 15 9 6 3 4 5 2 6 9 8 8 6 5 5 5 4 4 7 9 10 13 13 9 7 8 7 6 6 8 8 8 6 5 6 5 3 1 2 7 8 10 15 12 7 6 6 5 4 5 6 5 2 1
11 1 -3 1 1 -0 3 2 1 10 16 14 10 5 6 7 4 5 7 7 7 6 4 2 4 6 8 10 9 9 13 13 11 9 8 7 7 6 7 7 7 7 6 6 5 5 3 3 6 6 10 16 12 6 6 6 5 5 5 5 4 1 2
12 8 6 10 10 6 5 4 5 9 12 14 12 8 7 7 5 5 6 6 6 5 3 2 5 8 7 8 9 11 14 14 14 12 9 9 7 7 8 7 7 6 6 6 5 5 3 3 6 6 11 17 12 6 6 6 5 6 5 4 2 1 4
6 8 13 19 21 17 9 5 11 14 13 14 12 9 9 8 7 6 5 6 5 4 3 3 7 7 5 8 11 12 13 13 14 14 13 12 9 9 9 7 8 7 7 7 7 6 4 4 7 6 10 18 13 6 5 5 6 6 4 2 1 3 8
7 3 9 13 12 14 7 2 10 17 18 19 15 11 11 9 8 6 6 7 5 4 4 5 9 9 5 7 10 10 9 9 10 11 13 15 14 13 11 9 8 7 7 8 7 7 5 4 7 6 11 19 13 4 5 6 6 5 3 1 2 7 10
14 5 4 5 4 6 1 -3 6 14 19 23 19 12 8 8 8 7 7 9 6 5 5 7 11 9 4 7 9 9 8 8 10 11 11 13 16 17 16 14 11 6 7 7 6 7 6 6 8 6 11 18 11 4 6 6 4 3 2 2 6 10 7
13 7 2 2 3 1 -2 -3 1 8 17 25 23 16 10 8 9 8 7 6 6 7 7 8 11 8 4 7 9 7 7 8 10 11 13 13 15 19 21 20 17 12 9 6 5 7 7 6 6 6 13 17 8 4 7 5 3 3 1 4 10 8 3
12 8 6 5 5 4 1 -3 -2 2 11 19 22 21 17 12 9 7 7 8 9 10 10 9 11 10 6 7 7 6 6 7 9 11 14 13 11 13 19 22 22 19 15 12 10 9 8 7 5 9 16 13 5 5 7 5 4 2 3 9 9 4 2
14 9 7 4 5 9 7 -0 -2 -0 4 9 12 15 16 14 10 9 10 12 12 11 11 10 10 9 6 6 7 6 5 6 8 7 7 9 8 7 11 17 20 19 20 23 19 10 7 6 5 10 15 9 5 6 6 6 4 1 7 12 5 2 3
17 13 9 2 2 9 10 4 0 -0 2 5 7 10 14 14 13 14 13 12 13 14 14 11 9 8 6 5 6 5 5 6 6 4 3 3 5 5 6 10 15 17 19 22 16 8 7 7 7 11 12 6 4 5 6 5 3 5 11 9 2 3 4
19 20 14 6 4 9 10 6 3 2 1 -0 3 9 13 13 13 13 12 11 11 14 15 12 9 9 8 7 5 3 2 3 5 6 5 3 5 8 9 8 10 13 16 16 11 6 6 8 8 9 9 7 4 5 7 4 3 9 12 4 1 4 2
17 21 17 12 7 7 12 10 4 2 -0 -2 1 6 11 14 14 10 9 9 7 10 14 14 12 12 10 8 5 2 0 1 3 5 7 5 4 6 9 11 11 10 12 15 16 11 8 10 10 7 8 8 5 6 7 4 6 12 9 1 2 3 -1
12 15 18 17 7 3 11 13 4 0 1 1 2 4 8 13 13 11 9 8 7 9 11 12 12 11 10 10 9 6 4 4 2 3 5 6 3 1 3 8 12 12 11 12 15 14 11 11 10 8 8 8 7 10 7 4 9 11 3 0 2 1 -1
8 9 13 16 10 4 9 12 7 3 2 3 4 3 4 6 10 11 10 6 6 6 5 7 9 8 7 9 9 8 9 9 6 4 4 5 5 2 0 1 6 11 14 13 13 14 13 13 12 11 10 8 9 11 7 4 10 8 -0 0 2 -1 1
7 6 7 10 11 9 11 13 11 6 2 4 7 2 -3 1 9 13 13 9 4 2 1 3 5 5 5 4 3 5 9 11 10 8 6 6 5 3 2 2 3 5 10 13 15 15 13 12 14 12 8 7 10 14 10 6 8 5 -0 1 2 1 2
7 5 4 7 9 10 14 16 14 9 2 3 6 1 -2 7 13 14 16 15 10 5 2 1 1 3 4 4 3 2 3 6 8 9 10 7 5 4 3 3 2 2 6 9 12 17 18 17 18 16 10 7 11 15 12 7 5 3 1 2 1 1 2
7 5 4 6 7 10 15 16 14 11 5 5 7 4 6 13 13 11 12 14 14 9 2 -0 2 3 3 5 4 1 1 3 4 7 10 8 4 4 3 3 4 3 5 6 6 12 17 18 18 19 14 8 11 15 13 8 5 2 2 3 2 2 3
4 5 5 5 5 8 11 11 10 10 11 11 7 3 6 9 6 7 8 7 9 9 8 9 9 6 4 3 2 2 3 4 4 7 11 11 8 8 6 4 3 4 6 7 4 6 12 17 21 24 20 10 8 14 14 10 6 2 3 3 0 1 3
5 4 5 7 6 6 8 9 5 3 7 10 4 -0 3 4 3 5 8 7 6 5 5 9 11 11 8 2 2 4 4 4 4 4 6 8 8 12 14 11 7 5 5 6 5 4 9 14 18 22 23 14 7 11 17 14 7 2 2 2 0 1 2
7 4 5 8 9 5 5 7 7 3 3 6 6 7 8 5 0 -0 4 8 7 4 3 3 7 11 8 4 6 5 3 4 5 5 6 2 -2 3 12 13 9 5 4 5 5 4 5 9 11 16 22 17 7 10 20 20 9 1 2 2 -0 0 1
6 6 6 7 8 7 4 4 6 6 4 4 6 8 7 4 1 -2 -1 2 3 6 6 1 0 4 7 10 12 7 4 5 5 9 11 0 -7 1 9 9 8 6 5 5 4 2 4 7 9 14 19 17 10 10 18 20 10 1 3 4 1 1 0
5 7 9 8 8 7 4 4 5 4 5 5 5 6 4 2 3 3 1 -1 -3 0 2 -1 -0 8 15 18 14 4 -1 -3 -1 6 7 -4 -5 6 12 7 4 4 5 5 5 3 4 7 10 13 17 17 13 9 11 17 12 3 3 4 0 -0 1
6 6 8 9 9 7 4 5 6 5 5 5 5 8 6 1 2 6 6 3 -1 -0 3 3 3 7 11 8 2 -3 -4 -2 2 4 4 2 4 14 19 11 2 3 6 4 5 3 0 4 7 8 14 18 15 8 10 17 16 7 3 3 0 0 0
8 7 6 7 9 10 7 4 4 5 5 4 4 5 5 2 1 2 3 4 4 2 4 6 5 5 6 4 0 1 3 4 5 4 6 11 10 15 28 20 2 2 8 5 5 5 0 1 4 5 11 17 15 14 16 19 17 8 1 1 -0 -1 1
13 11 9 8 7 9 8 4 2 2 3 4 5 4 4 4 1 -1 -0 1 2 3 6 9 6 3 5 8 7 8 8 7 7 6 6 7 -0 3 25 28 6 -1 6 6 7 8 3 -0 1 3 6 9 14 18 18 16 15 8 1 2 1 -1 1
17 13 10 9 8 8 10 6 3 3 3 3 5 6 5 5 3 2 2 -0 0 3 5 4 2 1 5 9 7 5 4 5 6 5 5 7 1 0 17 29 17 3 1 3 8 12 7 0 1 5 5 6 13 17 13 12 15 9 1 1 1 0 3
14 12 11 12 8 6 11 10 5 4 4 2 3 3 5 8 8 5 4 3 5 7 3 -1 -1 -1 -1 2 4 4 5 5 6 7 7 6 4 1 4 14 18 13 9 8 8 7 4 1 3 4 0 2 10 11 9 13 16 10 2 -0 0 0 1
9 9 10 13 11 7 9 12 9 5 3 3 4 3 2 4 6 5 4 4 3 2 1 -1 0 2 6 11 14 12 12 11 9 10 9 3 3 6 4 3 5 6 9 14 14 10 8 10 12 7 1 5 10 8 6 11 13 7 0 -1 2 2 -0
7 8 8 10 13 12 12 15 16 12 7 3 2 2 1 1 4 4 4 4 4 5 9 11 12 15 21 24 19 10 10 11 8 7 8 3 2 7 9 6 3 1 6 13 13 7 3 4 8 9 9 10 9 5 4 4 5 6 4 2 1 -2 -2
6 6 9 9 10 13 16 17 17 15 13 11 8 10 13 13 14 15 14 13 15 17 17 17 15 12 13 16 12 4 4 7 8 9 12 10 7 8 9 8 5 4 6 8 5 2 2 4 8 11 13 16 18 15 8 2 -1 -0 0 2 4 1 1
8 10 11 8 7 10 12 12 11 11 13 17 18 18 18 16 14 14 12 11 12 11 9 7 5 2 3 5 4 -0 1 3 4 6 9 9 7 6 6 6 4 3 4 4 3 4 5 7 8 6 6 18 29 22 7 4 7 5 0 2 4 4 2
7 11 4 -2 0 4 5 6 11 12 10 10 12 10 6 5 5 4 4 5 6 6 6 5 4 4 4 3 4 5 7 7 5 5 8 8 6 6 7 8 6 2 3 6 6 5 5 8 11 9 6 12 19 15 7 7 8 2 1 4 4 6 9
3 -1 -9 -6 3 5 2 4 13 16 10 6 5 3 -0 1 2 2 2 3 4 6 8 7 8 8 7 8 10 9 7 8 8 7 6 5 5 6 7 7 7 5 5 4 2 1 3 6 9 11 12 13 13 9 6 7 10 10 9 4 -3 1 13
-0 -5 -7 -1 5 3 -0 4 12 15 9 3 3 4 4 4 4 2 0 1 2 5 6 6 7 8 9 10 11 9 10 15 15 10 7 7 7 7 7 8 8 8 6 5 4 4 6 9 10 9 12 17 17 13 4 0 10 19 18 13 11 6 4
-5 -2 4 5 4 3 1 3 7 8 3 3 10 14 10 7 7 5 1 -0 1 1 2 4 6 7 8 9 8 11 17 19 16 13 12 11 10 10 9 8 8 9 9 9 9 6 4 6 8 8 10 13 13 12 10 8 14 17 4 -5 10 23 16

ECMWFFLT1_500_avort_027.txt.gz
Vorticity
-2 -1 2 3 1 3 6 7 6 4 5 7 6 4 5 8 10 12 13 12 11 10 8 6 5 5 4 3 2 3 3 3 4 4 6 7 7 7 6 8 10 9 7 4 3 4 3 4 5 2 2 3 4 12 17 12 7 8 6 3 4 5 6
1 2 4 3 2 4 5 5 6 4 4 4 5 5 6 7 7 7 7 7 8 9 8 7 6 6 5 3 3 3 3 3 3 3 4 5 5 6 6 7 9 9 9 6 4 5 5 5 4 2 2 3 3 8 16 15 8 7 7 4 4 5 5
2 2 4 2 3 6 7 6 6 4 3 4 5 5 4 3 2 1 2 3 4 6 7 6 5 6 7 6 5 6 6 6 6 5 5 5 5 5 5 6 7 8 9 8 6 5 6 7 4 2 2 4 4 5 13 17 10 6 8 5 3 4 4
5 6 4 3 6 8 6 5 7 6 3 4 5 3 1 0 0 0 1 3 4 5 6 6 5 5 5 6 7 7 7 7 8 8 6 5 6 5 5 5 6 7 8 8 7 7 7 8 5 3 2 3 3 3 9 16 11 6 9 6 4 5 3
9 9 8 9 10 8 7 7 10 10 7 6 4 3 2 1 3 2 0 2 4 6 7 7 7 6 5 5 7 8 8 8 8 9 9 8 7 7 6 6 5 6 6 5 6 7 8 9 6 4 3 1 3 4 8 15 12 6 8 8 5 4 3
10 8 9 9 5 2 3 4 7 10 9 10 8 6 5 4 3 3 2 2 3 5 6 8 8 7 6 6 7 6 7 8 10 10 11 11 9 8 8 7 6 6 6 5 5 6 7 9 8 6 4 1 1 4 8 15 13 6 8 9 5 4 3
11 10 9 3 -4 -3 -1 -0 4 6 7 10 11 9 9 8 5 4 4 3 3 4 5 8 10 8 6 6 5 5 6 7 8 10 13 14 13 11 9 8 7 6 6 6 5 6 7 8 7 6 5 2 1 4 8 14 13 6 7 9 5 4 2
6 13 14 4 -4 -0 3 2 3 4 5 8 10 10 11 11 8 4 4 4 4 5 5 8 11 9 5 5 4 5 6 7 10 12 14 16 16 15 12 10 9 8 7 6 5 5 6 6 7 7 7 4 1 3 8 15 14 6 6 9 6 3 2
2 6 11 7 5 9 11 9 7 4 2 4 7 10 11 11 10 6 5 6 5 5 5 7 11 8 4 4 5 5 5 8 11 12 12 13 13 15 15 14 13 11 10 9 7 7 6 6 6 6 7 5 2 4 9 15 14 6 5 9 6 3 2
6 3 3 3 3 5 10 12 9 2 0 2 4 10 13 11 11 10 7 6 6 6 6 6 9 9 5 5 6 6 6 9 11 10 9 10 11 12 14 16 18 17 16 14 11 9 7 6 6 6 7 5 3 7 11 14 14 6 5 8 6 2 2
10 8 6 4 -0 -0 7 12 7 -3 -4 1 2 7 16 15 13 14 11 9 8 8 7 6 7 8 6 7 7 7 7 9 10 8 7 10 12 13 13 14 17 19 21 22 21 17 13 10 7 5 6 5 5 8 11 13 12 6 4 9 6 1 2
17 12 7 5 3 3 5 8 8 -1 -5 1 0 2 13 19 19 17 13 9 8 8 8 6 5 6 6 8 9 8 8 10 9 6 7 9 9 9 9 10 12 13 14 19 23 25 24 23 20 15 10 8 7 9 9 11 12 6 5 9 7 1 3
22 21 15 11 8 6 3 2 7 4 -2 1 2 0 7 17 23 20 13 8 7 8 9 7 5 5 7 10 12 10 8 10 9 5 6 8 5 3 4 6 8 8 9 11 14 17 21 25 29 28 24 19 14 10 8 11 12 7 6 11 7 1 4
18 21 22 18 9 9 9 4 5 6 2 2 5 4 5 12 21 22 14 8 7 6 8 9 7 6 8 13 16 11 9 11 8 4 5 7 4 3 3 2 4 6 8 11 12 12 11 13 17 22 24 22 17 12 9 10 13 10 9 12 6 1 5
10 14 19 19 13 13 14 10 8 8 5 2 3 6 8 10 16 19 17 11 6 5 8 9 8 8 11 16 17 11 8 10 6 2 4 5 4 4 2 -1 1 3 4 6 9 13 13 11 10 11 14 16 16 15 13 12 16 14 10 10 6 1 4
5 8 13 18 21 19 15 11 8 8 6 2 1 6 9 10 10 13 16 15 11 9 9 8 9 11 14 19 19 13 9 8 4 1 3 3 3 4 3 1 -1 -1 0 1 3 7 11 14 14 12 12 12 12 14 14 14 18 15 11 9 5 1 5
3 3 4 9 17 18 15 10 6 9 11 6 3 3 5 7 9 10 13 15 14 11 8 7 9 12 13 15 16 16 13 9 4 3 3 3 3 3 4 4 1 -2 -1 1 1 2 4 8 13 15 15 14 13 13 12 15 18 15 10 9 3 1 5
4 3 2 4 10 13 14 10 6 10 14 9 4 3 1 3 7 9 11 15 15 12 10 10 9 9 10 9 9 11 13 10 9 8 7 4 2 1 2 5 5 2 -0 -0 0 1 2 4 7 10 13 16 17 15 11 14 18 14 11 9 4 3 6
5 4 4 5 8 11 14 13 10 12 15 12 6 3 -0 2 7 6 5 7 9 8 9 10 10 9 8 6 6 10 12 13 13 11 9 7 4 2 2 3 6 6 3 2 2 2 2 5 6 5 8 13 15 14 13 14 15 14 14 11 5 4 6
5 6 5 5 7 8 10 13 13 14 16 15 11 5 -1 2 8 6 1 2 5 8 8 8 8 9 7 5 6 8 8 9 10 8 7 6 4 3 3 4 6 6 5 4 4 3 4 5 6 5 5 8 11 11 14 16 15 14 16 14 7 4 6
5 4 3 4 7 7 7 9 10 13 16 15 14 9 1 1 8 7 2 0 2 8 10 7 6 5 2 2 3 3 2 3 5 5 4 4 5 5 5 4 4 5 6 5 3 3 5 5 5 6 5 5 7 9 12 15 15 15 16 16 10 3 3
4 3 3 4 7 8 8 7 8 13 14 12 15 12 2 2 8 6 4 2 2 10 13 10 7 5 1 -0 0 1 3 4 4 3 2 4 6 6 6 5 4 5 8 9 7 6 6 6 6 6 4 3 5 6 7 10 13 14 15 16 12 4 3
4 3 3 5 8 9 8 6 7 12 12 10 15 15 6 4 6 4 5 7 8 13 13 10 10 8 5 7 7 5 5 4 3 2 1 3 4 3 5 6 4 5 7 8 7 6 4 5 5 4 3 4 6 5 3 7 12 13 13 15 11 5 4
5 4 2 5 8 9 8 6 6 11 12 8 11 14 9 7 7 4 4 6 7 10 10 10 12 10 9 12 12 10 9 6 4 3 1 1 1 -1 4 7 4 4 2 -2 -1 3 4 2 1 4 5 4 4 5 2 4 11 11 11 13 12 7 6
6 6 4 4 7 9 8 7 6 10 12 8 7 9 9 10 10 8 5 1 0 4 8 11 12 10 10 10 6 6 8 7 8 9 8 8 3 -4 0 6 3 1 -1 -6 -4 4 11 9 2 0 5 4 2 4 5 4 7 11 11 11 10 8 5
6 7 6 4 5 8 8 7 6 8 10 11 7 5 5 7 8 8 6 1 -0 3 5 3 3 2 3 3 2 2 3 4 7 12 18 24 18 3 -2 -0 -1 1 5 4 3 6 13 22 18 3 -1 4 4 1 3 4 3 7 10 10 10 9 6
4 5 7 5 5 6 8 8 7 5 8 11 10 6 3 3 4 6 5 1 1 5 6 5 4 2 0 -0 -0 0 2 3 5 6 10 17 18 8 0 0 1 5 7 6 7 6 6 19 33 19 -2 -0 8 4 0 3 2 3 8 10 10 10 9
8 7 7 7 7 8 9 8 6 5 6 8 10 10 7 4 3 4 3 2 -0 -1 3 7 7 5 2 0 -1 -0 1 2 5 5 2 2 6 6 3 5 7 7 6 4 6 8 2 6 30 38 13 -4 3 8 4 1 1 0 3 8 11 10 10
8 9 8 7 8 10 10 9 8 7 6 7 8 9 8 7 6 4 3 5 6 3 4 8 9 6 4 2 1 2 3 4 8 9 5 2 5 7 5 6 6 3 4 3 0 5 7 0 11 33 28 5 -2 6 8 7 7 5 1 2 8 10 7
5 7 8 7 6 7 8 7 7 8 8 7 6 6 9 9 8 8 7 6 7 7 7 9 9 7 4 3 2 2 4 7 8 7 5 3 3 4 4 5 5 2 3 4 2 5 11 5 1 15 26 19 7 2 2 4 7 6 1 0 7 10 7
7 6 7 7 5 5 8 9 9 9 10 10 6 3 5 6 5 7 8 7 6 5 4 5 6 5 3 2 2 2 2 4 5 5 5 3 1 6 9 9 9 8 6 8 8 6 7 8 5 4 10 19 18 9 6 12 15 10 5 5 9 8 3
8 7 7 7 6 5 8 12 13 10 11 13 10 4 1 2 3 2 1 4 7 6 5 5 4 4 3 2 2 3 3 4 4 3 3 2 3 8 12 11 10 9 8 8 8 6 5 5 3 0 3 11 11 2 3 15 21 16 13 13 13 8 4
7 9 9 10 11 9 8 11 13 13 12 14 15 12 5 2 3 2 0 1 4 6 7 6 4 4 6 5 4 4 3 4 5 5 5 9 12 12 11 11 10 8 7 6 5 5 6 6 5 6 6 5 3 3 6 13 14 12 13 16 12 6 6
8 10 10 11 11 12 11 12 13 14 13 12 15 17 16 11 8 8 7 5 5 6 6 5 5 4 1 0 2 5 7 10 12 13 15 16 14 11 10 10 10 8 4 4 6 8 8 7 8 8 6 3 5 7 5 4 5 5 6 11 13 9 7
8 8 10 11 10 10 11 12 12 12 11 11 12 13 14 14 13 14 15 15 13 12 10 8 7 6 5 6 10 13 14 14 13 13 13 11 7 6 6 6 7 7 5 5 8 8 7 6 7 8 9 9 7 5 1 1 6 6 2 6 14 14 12
7 5 6 8 10 10 8 6 9 10 8 7 9 10 10 9 9 10 13 13 12 15 17 17 17 18 18 17 14 10 8 9 9 9 8 7 5 5 5 4 4 5 5 5 5 6 7 7 6 7 10 9 8 7 6 5 7 7 5 6 7 5 8
7 6 6 6 7 9 9 8 11 13 9 4 5 9 9 7 7 7 6 4 7 12 15 16 16 14 12 8 5 4 3 3 5 5 5 6 6 4 4 5 4 4 5 6 7 8 8 7 5 4 4 5 7 9 7 5 6 7 8 10 8 7 11
4 4 4 4 4 5 6 9 12 13 9 5 3 3 4 6 8 8 3 1 5 9 10 9 6 2 1 1 0 1 2 1 2 3 4 5 5 5 7 8 7 6 5 6 9 12 12 11 10 5 2 2 5 7 6 5 5 4 3 6 8 11 13

ECMWFFLT1_500_avort_033.txt.gz
Vorticity
9 6 4 8 6 7 9 6 7 7 7 8 7 8 10 10 10 9 9 8 6 6 5 4 3 3 3 3 4 5 7 8 7 7 6 6 5 6 6 5 4 4 4 4 5 5 4 3 4 5 4 4 3 1 0 2 6 11 13 11 7 5 5
9 7 5 7 8 8 9 7 6 6 6 7 6 8 10 10 10 9 8 7 6 4 4 4 3 3 4 5 6 7 8 8 7 7 7 7 6 6 6 5 5 4 4 4 5 4 5 5 5 5 5 4 5 3 1 -0 2 7 13 14 11 6 5
9 9 8 10 10 8 10 10 6 6 6 6 6 7 9 10 9 9 8 6 7 6 5 5 5 5 5 6 7 6 7 7 6 6 6 5 5 5 6 8 7 6 6 6 5 5 6 7 7 6 6 5 4 4 3 -0 -1 1 7 14 15 10 5
5 6 8 14 12 5 6 9 8 7 6 6 7 6 7 8 7 7 7 6 7 7 6 7 7 7 7 6 6 5 5 6 7 7 7 5 4 5 6 7 7 7 8 7 7 7 6 5 6 6 6 6 5 5 6 3 -1 -1 1 7 15 15 9
1 5 9 16 14 4 2 9 12 11 10 9 7 6 6 7 7 6 6 6 6 6 7 8 8 9 8 6 5 4 4 5 6 7 7 6 5 6 6 5 5 5 5 5 6 7 8 7 6 6 6 6 5 5 6 5 2 -0 -1 0 8 15 14
2 7 7 12 16 8 2 8 12 12 14 12 8 8 7 5 6 7 8 8 7 7 7 8 9 8 7 6 5 5 5 6 6 6 6 6 6 6 6 5 5 6 5 5 5 5 6 7 7 7 7 6 6 5 6 6 5 2 0 -1 1 9 16
1 11 15 13 11 8 4 8 11 10 12 13 11 11 10 9 8 7 8 10 10 10 9 9 8 7 7 6 6 6 6 6 6 6 6 6 7 7 7 8 8 9 9 10 10 9 7 7 6 7 7 7 7 6 5 6 6 4 2 0 -1 3 11
-8 1 17 16 4 2 5 6 9 9 11 14 14 13 13 12 9 7 7 9 11 12 12 12 10 8 8 7 6 7 6 5 5 5 6 6 7 7 7 8 9 9 10 11 12 12 12 11 8 7 7 7 7 7 6 6 7 7 5 3 1 -0 5
-3 -7 6 14 7 3 6 5 5 8 11 12 12 10 10 10 8 6 6 7 10 9 9 10 10 7 6 6 7 8 7 6 6 5 6 6 5 6 6 7 8 8 9 11 12 14 15 14 12 9 7 6 7 7 7 7 7 8 8 6 4 1 2
4 -0 2 7 4 4 10 8 3 5 7 5 6 6 5 6 7 8 7 5 7 8 6 6 5 3 4 5 7 8 7 8 9 8 7 6 4 5 6 6 7 7 8 10 12 15 15 15 14 12 10 8 8 8 8 8 7 7 8 8 6 3 2
-2 7 12 7 0 2 7 4 1 5 6 2 5 9 9 7 6 8 10 6 3 5 6 7 4 -0 -0 2 4 6 7 9 11 10 8 6 4 4 5 7 7 8 9 10 11 13 14 15 15 15 14 12 10 10 9 9 9 9 10 10 9 6 4
-3 9 16 9 3 2 1 0 0 4 5 3 4 8 11 14 11 8 10 9 6 4 3 5 7 2 -1 1 3 4 6 9 11 12 10 6 4 4 6 8 8 8 10 11 13 14 14 14 15 17 18 17 16 17 15 12 12 12 11 10 10 8 6
6 11 12 8 7 6 3 4 3 2 5 5 1 1 4 8 11 10 10 10 8 6 4 4 7 5 2 3 5 4 5 8 10 12 10 6 5 5 6 7 8 10 12 12 14 15 14 13 13 14 15 16 19 22 21 20 21 21 18 15 14 12 10
9 11 14 11 7 5 5 6 4 3 6 4 -1 -2 -1 -0 3 6 8 9 8 7 7 6 7 10 10 7 6 5 5 7 8 9 9 6 4 5 6 7 9 10 11 12 14 13 12 11 11 12 12 12 13 13 14 15 18 20 20 18 18 17 15
11 12 14 13 8 3 3 7 7 4 4 3 0 -1 -1 -1 -1 0 3 5 4 2 4 5 5 10 14 13 10 8 7 7 7 7 8 7 5 5 6 7 8 9 9 11 12 11 10 10 10 9 10 10 10 11 11 12 11 11 12 12 14 14 12
11 9 7 8 7 1 -1 2 6 6 3 2 2 2 2 0 -1 -0 2 2 2 4 6 6 5 8 15 17 15 12 10 8 7 7 7 6 6 6 6 6 7 9 9 10 10 8 9 9 6 6 7 6 7 9 11 13 12 10 9 8 8 9 9
10 6 3 5 6 6 7 6 5 6 4 2 3 5 5 3 -0 1 2 2 2 4 6 6 5 8 13 19 20 17 14 12 9 7 6 5 6 6 6 6 7 8 8 9 9 8 8 7 6 6 5 3 3 5 6 9 10 10 10 9 8 7 7
11 8 6 7 4 4 11 10 5 5 6 3 3 5 7 7 5 3 4 6 4 1 3 5 5 6 10 16 20 20 19 16 11 8 6 5 5 7 7 5 6 7 7 7 8 8 8 7 7 4 1 1 3 3 3 4 5 7 8 9 10 10 9
13 11 11 14 12 11 16 15 11 10 10 8 6 5 5 8 8 6 7 10 6 2 3 4 5 7 10 12 15 16 18 17 13 10 8 5 4 6 7 7 7 7 7 5 6 7 7 5 3 1 1 1 1 1 3 3 4 5 5 6 7 8 9
12 12 12 14 15 18 20 18 16 17 16 17 17 12 8 7 9 7 6 9 9 4 1 1 5 11 13 12 12 13 14 14 13 12 9 6 4 6 9 9 7 6 5 4 4 7 7 5 2 2 1 1 1 2 3 3 3 5 6 5 5 5 6
10 9 8 9 10 12 15 17 19 20 19 20 21 19 14 11 10 8 5 6 10 7 -0 2 9 14 16 15 14 15 13 13 15 13 8 6 6 7 10 10 8 8 7 6 6 6 6 4 3 3 1 1 2 3 4 4 4 4 6 6 4 1 1
8 7 5 8 10 9 11 15 17 19 20 19 20 21 19 15 13 12 9 7 10 10 7 9 11 9 10 13 17 18 17 15 15 11 6 8 9 10 12 13 12 12 9 6 6 5 4 4 4 3 3 2 2 3 4 4 2 3 8 10 8 4 3
9 8 6 8 10 9 9 9 8 10 13 14 17 22 23 20 18 16 14 12 11 13 15 16 10 5 6 10 12 14 16 18 18 14 10 12 14 15 16 14 12 12 10 8 8 6 5 4 3 3 3 1 0 1 1 -0 2 8 10 9 8 7 8
5 5 5 7 9 9 7 6 6 5 5 6 10 15 20 22 21 19 17 15 13 13 15 14 6 2 6 9 7 6 8 11 14 17 17 16 16 14 13 11 10 9 8 8 8 7 8 8 7 8 8 5 2 3 3 2 2 5 7 6 4 3 4
3 3 4 5 6 6 4 3 4 4 4 5 5 7 12 16 18 17 15 14 13 12 12 9 4 1 3 5 5 4 5 5 8 15 20 20 17 14 10 8 7 7 6 6 6 6 7 7 8 8 8 9 7 4 4 4 3 3 4 3 4 5 5
5 3 4 3 2 3 3 2 3 3 5 6 4 4 7 9 12 14 12 10 11 12 11 7 3 2 2 4 4 3 4 6 9 15 20 18 14 11 9 7 5 5 5 5 5 6 6 6 8 8 9 11 12 9 4 1 1 3 3 1 3 9 10
7 4 4 3 2 3 3 3 5 5 6 6 5 4 5 5 7 10 11 10 9 11 12 9 7 5 2 3 3 2 3 4 5 10 13 12 10 10 10 9 7 5 6 6 6 7 6 6 7 7 7 8 12 17 16 10 5 2 2 4 7 9 9
6 4 4 4 3 4 4 3 4 5 5 7 6 5 4 4 4 7 9 11 11 10 10 11 13 9 3 2 3 3 3 3 1 3 7 9 10 11 12 12 10 7 5 4 4 3 2 3 3 3 3 4 5 9 15 17 14 8 6 9 9 6 6
6 4 4 4 2 3 3 3 3 4 5 5 6 6 5 3 4 5 7 9 11 10 8 12 15 12 5 3 4 4 4 3 1 1 3 5 5 6 7 8 8 7 5 3 2 1 0 1 1 1 2 4 5 6 8 10 10 8 6 7 5 6 8
9 7 7 6 4 3 4 4 4 5 4 4 6 7 7 5 4 4 5 7 9 9 8 9 13 14 10 5 3 4 4 3 2 2 2 1 1 2 3 3 3 3 4 4 4 3 2 2 1 0 2 2 3 5 6 6 6 4 3 3 4 7 9
11 8 7 9 8 7 6 6 6 6 6 6 6 6 7 7 5 5 5 6 6 8 9 8 10 14 13 8 5 5 5 4 5 3 1 0 1 1 1 1 1 1 1 3 5 5 6 5 2 0 2 2 2 4 6 6 5 4 3 4 5 7 9
11 10 7 9 11 9 8 7 6 6 7 7 7 7 7 7 7 6 6 6 5 6 7 8 9 11 11 10 9 7 4 5 6 4 2 1 0 -1 0 1 1 1 0 2 3 4 5 5 2 1 3 4 6 7 6 3 2 4 4 4 6 7 8
8 10 8 8 11 12 10 8 7 7 7 7 7 6 6 7 8 8 8 8 7 6 6 7 9 9 8 9 10 8 6 5 5 5 5 3 1 1 2 3 3 3 3 4 4 4 5 4 5 6 7 7 8 8 4 1 3 5 4 4 6 6 5
5 8 9 8 10 12 12 10 9 8 8 7 7 6 6 6 8 9 9 9 9 8 7 6 6 8 8 8 9 10 8 5 4 4 3 2 2 2 2 3 3 3 3 3 3 4 5 5 7 8 7 7 7 5 3 4 5 6 5 4 4 4 5
5 7 8 6 6 9 12 11 11 9 8 8 7 7 7 7 7 8 7 8 10 12 12 9 7 6 6 7 8 9 8 6 4 3 2 2 2 2 2 2 2 3 4 6 6 7 7 7 7 7 7 7 5 4 5 7 7 7 7 7 6 7 8
6 8 8 6 3 4 6 9 10 10 9 9 9 9 8 7 8 9 8 8 8 10 12 13 10 6 5 6 7 8 9 9 7 6 7 7 7 7 7 6 6 7 8 7 6 7 6 6 7 9 8 5 3 4 8 10 10 9 8 7 6 5 4
7 8 8 8 6 4 3 6 7 9 10 10 9 10 11 10 11 11 11 11 9 8 9 10 9 7 6 6 6 7 8 8 7 8 9 9 8 7 7 6 5 5 5 5 6 6 6 6 7 8 7 4 2 4 7 8 7 3 -1 -1 -0 -0 1
8 8 7 7 7 6 5 4 4 5 7 7 8 8 9 10 11 12 11 11 10 9 9 8 8 8 7 6 7 8 7 6 7 7 7 7 6 5 5 5 5 5 6 7 7 8 9 10 9 8 9 9 6 5 6 5 2 -1 -2 -1 1 2 3

ECMWFFLT1_500_avort_036.txt.gz
Vorticity
16 7 9 10 3 1 9 16 11 5 11 15 11 8 7 7 9 10 10 10 10 10 10 10 11 9 8 8 7 7 8 7 6 5 4 5 6 7 9 9 8 6 5 5 5 5 4 2 3 4 3 3 3 3 2 2 3 5 7 10 13 13 9
21 2 7 17 10 4 8 13 12 6 6 9 9 7 7 8 9 11 11 11 12 12 12 11 10 10 8 7 7 6 7 6 5 5 4 5 6 8 9 8 8 6 5 6 5 4 4 3 3 3 4 3 2 3 3 2 2 3 4 5 8 13 13
22 6 5 12 16 14 10 10 11 11 10 8 7 6 8 9 9 11 11 11 12 11 12 10 8 9 8 6 6 7 7 6 6 6 4 5 7 8 9 8 6 6 5 6 6 5 5 5 5 4 4 5 3 3 3 3 2 2 3 3 3 7 12
19 22 13 6 14 13 7 10 12 13 10 7 7 6 7 9 8 10 11 10 11 10 10 10 8 7 6 6 6 6 7 6 7 8 5 5 6 5 6 7 6 6 6 6 6 7 8 7 8 8 6 6 5 3 3 3 3 3 2 3 2 2 5
10 12 3 -1 9 9 6 10 14 15 7 1 6 7 7 8 7 9 12 10 9 8 8 7 6 6 5 5 6 5 6 7 9 10 7 5 5 5 6 6 6 6 6 7 6 6 7 6 7 9 8 8 7 5 4 3 3 4 3 2 3 2 1
5 7 1 -4 -0 6 10 10 11 18 14 4 4 7 8 8 7 9 11 12 11 9 9 7 6 7 6 5 6 6 6 8 9 9 8 7 8 8 8 6 6 6 5 5 6 6 6 6 6 6 6 7 8 8 7 5 4 4 3 2 2 3 3
11 13 9 -0 -2 5 10 12 13 13 13 8 3 5 9 7 6 8 9 10 12 11 10 9 8 8 8 7 8 8 8 8 7 7 7 7 7 6 6 5 5 6 6 7 9 9 9 10 9 9 8 7 7 8 8 8 7 5 4 4 3 3 4
12 14 15 3 -1 3 7 15 16 8 8 9 6 6 8 8 7 6 8 9 10 10 10 9 9 9 9 9 8 7 7 6 6 6 5 5 6 5 5 7 7 7 8 9 10 10 10 11 12 12 11 10 9 8 8 8 8 7 6 6 5 4 5
7 13 25 16 5 4 5 10 14 12 11 7 6 7 6 11 11 7 9 9 8 9 10 10 10 9 10 10 10 9 7 6 5 5 6 7 8 8 7 7 7 7 8 9 9 10 10 10 11 13 14 14 12 10 9 8 7 7 7 6 5 5 5
8 9 17 16 10 9 9 13 15 13 9 4 8 11 8 9 10 7 8 9 8 8 9 12 11 9 10 9 10 10 7 7 6 6 8 8 7 8 8 7 6 5 7 9 10 9 9 11 13 14 16 16 14 13 11 9 8 7 7 7 7 6 6
9 6 3 2 4 5 3 12 16 7 7 14 18 13 8 8 8 7 8 7 8 8 8 11 9 8 9 7 6 7 5 5 6 8 9 9 9 9 7 7 6 4 6 8 8 8 9 11 13 14 15 14 15 15 14 13 12 11 10 10 10 9 8
-2 -2 2 6 9 3 -5 5 12 6 5 13 16 11 9 11 9 9 9 7 6 7 7 10 9 8 8 6 6 5 3 3 4 5 7 8 10 10 9 9 6 4 6 7 8 8 9 11 12 13 14 13 16 18 16 16 16 16 15 14 14 12 9
1 -3 5 16 22 17 13 17 17 13 9 4 5 9 8 9 8 8 11 9 8 8 7 8 9 9 9 8 7 4 2 2 2 3 5 5 7 8 7 9 7 5 6 6 7 8 7 9 11 12 13 12 13 15 14 15 17 18 18 16 16 16 14
4 -2 -0 3 6 11 20 23 12 8 10 4 2 6 5 5 5 5 8 8 8 9 9 9 9 9 10 9 9 6 2 1 1 3 4 4 4 5 6 8 8 6 5 5 7 7 6 8 10 11 11 10 10 11 12 13 14 14 14 12 14 16 16
-0 3 5 -3 -6 -1 10 14 6 3 6 2 1 3 4 7 7 8 9 8 7 6 6 8 8 7 9 9 11 11 6 4 4 4 5 4 4 4 5 8 7 5 5 5 6 6 6 7 9 11 11 10 10 11 13 14 12 11 10 9 9 11 12
5 6 10 2 -2 1 4 3 3 5 4 -0 1 2 2 5 6 8 10 8 7 6 5 7 7 6 7 6 7 9 8 7 7 7 8 7 6 5 5 6 7 6 5 5 5 6 6 7 10 11 11 10 10 10 11 13 12 10 10 9 8 9 10
3 2 11 11 5 3 3 3 4 6 5 0 1 1 -0 2 2 3 6 5 4 5 5 7 7 5 6 4 3 6 9 11 11 10 11 11 9 7 5 5 7 6 4 5 7 7 6 8 11 11 9 8 8 7 7 7 7 7 7 7 7 8 9
-5 -4 3 11 14 9 3 5 7 6 6 4 2 1 0 1 1 1 2 3 4 4 3 4 4 4 7 8 8 8 10 12 14 15 15 16 15 11 6 5 5 5 4 6 8 8 8 9 11 10 8 6 7 6 5 4 3 3 3 3 4 4 5
6 1 -7 -5 11 17 7 7 14 12 9 9 6 3 1 1 1 1 1 3 4 5 4 3 3 3 6 9 10 10 9 9 11 16 19 19 18 14 8 5 4 5 6 6 7 8 9 9 9 9 8 7 7 6 3 3 3 2 3 3 3 3 2
15 6 -3 -5 10 21 10 5 17 21 17 14 9 4 4 4 5 5 4 3 2 2 4 4 4 5 6 6 5 5 10 12 9 12 17 18 16 14 9 6 5 5 6 6 6 7 9 10 9 7 7 6 6 5 3 3 3 2 3 3 3 2 1
13 4 2 2 8 18 13 5 11 17 16 16 10 4 5 6 5 4 4 3 1 1 3 3 5 6 6 7 2 -0 11 19 13 9 13 14 14 12 9 7 6 5 6 5 6 8 9 9 8 7 6 4 5 5 5 4 2 2 3 4 5 5 2
13 11 12 7 0 6 11 9 9 9 10 13 9 2 5 9 9 7 4 4 4 3 2 2 4 5 6 7 4 3 16 23 14 10 13 13 12 11 10 9 7 5 5 5 7 10 10 9 9 8 6 4 3 4 6 6 4 5 4 1 2 4 5
11 9 9 9 5 5 3 3 9 12 11 11 7 4 9 12 12 11 8 8 9 7 4 3 3 3 4 6 9 14 20 17 11 14 17 14 12 11 10 10 9 6 6 8 11 13 11 10 8 6 5 5 4 4 5 6 4 4 2 -1 -1 3 5
10 8 7 8 10 12 7 5 12 17 17 17 17 16 17 15 12 10 9 9 9 8 8 6 5 4 3 5 16 23 17 7 5 12 18 18 15 13 11 11 10 10 11 13 14 13 10 9 8 8 7 7 6 6 7 8 7 4 2 1 1 4 6
9 7 8 8 8 11 14 11 10 12 15 17 17 16 17 17 17 15 14 14 13 12 11 8 7 7 3 5 18 21 11 4 5 6 10 15 14 11 11 12 11 13 14 14 13 11 9 9 10 11 10 8 8 8 8 9 8 8 8 8 6 4 2
6 3 3 6 5 6 11 11 8 9 10 8 8 11 14 16 17 19 23 24 22 21 19 16 15 13 6 6 16 16 7 5 6 3 4 7 7 9 12 12 11 13 12 12 11 10 10 10 9 9 8 7 7 7 8 9 9 10 12 13 13 12 9
-0 2 3 4 5 5 6 7 7 9 8 6 8 11 10 10 11 14 17 20 22 23 25 24 21 17 11 11 16 13 5 4 6 5 4 4 6 10 13 12 12 12 12 11 10 9 8 6 5 5 5 5 6 7 8 8 8 7 6 6 8 11 11
-1 1 1 2 5 6 5 5 6 8 9 9 8 6 4 6 8 8 9 11 13 16 17 19 20 18 16 14 13 8 4 3 4 5 5 5 5 7 11 12 12 12 12 12 10 8 7 6 5 5 5 5 5 5 4 3 3 3 3 4 6 7 8
5 4 2 4 6 3 4 5 5 6 8 8 6 4 4 5 4 5 6 6 7 8 9 10 13 15 14 13 11 8 6 6 5 3 4 6 4 2 4 7 8 9 10 11 10 10 9 8 8 7 5 4 5 4 4 3 2 3 3 3 5 7 8
10 7 4 4 4 2 4 6 4 4 6 5 5 4 4 3 3 5 6 4 4 6 6 6 8 10 12 12 9 7 8 10 8 5 3 5 5 2 2 4 5 5 5 5 6 6 7 7 5 4 4 3 3 4 4 4 4 4 3 2 3 6 7
9 8 6 6 4 3 4 4 4 5 5 3 4 4 5 6 6 6 7 6 4 4 4 5 6 7 10 11 9 7 7 9 11 8 4 3 5 4 4 4 2 -1 -1 1 2 2 3 3 1 1 1 1 1 3 3 3 5 5 3 1 2 5 5
7 8 7 6 5 4 5 5 4 5 4 3 3 4 5 6 6 7 9 9 7 5 4 5 5 5 7 9 10 10 9 8 9 10 7 4 3 4 5 4 3 0 -0 0 1 0 0 0 1 2 2 2 2 3 2 3 5 4 2 -0 1 4 5
8 10 10 9 6 5 5 5 4 4 3 2 2 3 4 3 3 4 7 8 8 8 7 6 5 6 7 7 9 10 10 9 9 11 11 8 4 3 5 5 4 2 0 -0 1 1 0 -0 1 1 1 1 2 2 2 4 4 2 0 0 3 6 6
6 9 12 12 10 7 6 5 4 3 2 2 2 3 3 4 4 3 4 6 7 6 6 7 6 5 6 8 9 8 8 9 10 10 12 11 8 6 5 5 4 3 2 2 3 2 1 1 1 1 1 2 3 3 4 4 2 2 1 2 4 6 6
5 8 11 12 13 12 10 8 6 4 4 5 5 4 4 5 6 4 3 5 6 6 5 5 5 5 5 6 7 7 7 7 6 7 9 10 11 9 5 3 4 3 3 3 4 2 2 2 2 2 2 3 3 3 2 1 1 3 4 5 5 5 6
4 5 9 12 13 13 12 12 11 9 8 7 7 7 6 6 6 6 5 4 5 6 5 4 5 6 5 4 5 8 10 9 7 7 8 7 8 8 5 4 6 6 4 5 6 4 3 2 2 2 2 2 2 1 2 3 4 5 5 5 5 5 6
8 7 6 9 13 13 12 12 11 11 11 10 9 8 8 7 7 7 6 5 5 6 5 5 6 6 5 6 6 5 7 8 9 10 10 7 6 8 7 7 8 6 5 5 4 3 2 1 1 1 1 3 4 4 5 6 5 5 6 6 6 8 9
8 9 6 6 10 11 11 10 9 9 10 10 11 11 9 9 8 7 7 7 7 6 6 6 7 7 6 6 5 4 4 5 7 8 9 8 7 7 7 8 8 6 5 5 5 5 5 4 4 5 6 7 6 6 6 5 5 5 5 6 7 9 10

ECMWFFLT1_500_avort_042.txt.gz
Vorticity
8 5 2 -0 5 14 12 3 1 4 7 13 13 10 9 9 9 9 7 8 9 6 7 10 12 11 9 9 7 7 8 9 10 10 10 9 8 9 8 6 5 6 6 6 8 9 6 6 6 4 3 3 2 3 3 4 3 1 1 2 5 7 8
11 9 5 4 11 18 15 5 2 3 4 12 15 10 10 9 7 10 8 8 9 7 6 8 9 10 9 8 8 7 7 9 9 9 9 9 8 9 8 7 5 6 6 5 6 7 5 4 4 3 2 2 1 1 1 2 3 3 1 -0 -0 1 3
13 12 9 8 12 12 8 4 3 3 4 11 16 10 10 12 10 10 9 8 9 7 5 7 7 7 7 7 7 8 8 9 9 8 9 9 8 8 7 7 6 5 5 5 4 3 2 2 3 2 1 2 1 1 2 2 3 4 4 3 1 -0 -0
9 5 1 2 8 8 5 7 6 7 6 8 15 11 6 12 14 11 10 9 9 7 6 8 9 8 7 7 8 9 10 11 10 9 10 9 7 7 7 7 7 6 5 5 4 2 2 1 2 4 4 5 6 6 6 6 5 5 5 5 5 4 2
10 9 11 9 9 7 6 9 10 12 8 4 12 12 5 10 15 13 13 11 10 10 7 7 8 9 9 7 8 10 10 9 9 9 9 8 8 8 8 8 8 8 6 5 6 5 6 6 6 7 7 7 8 8 8 8 8 7 8 7 6 7 6
11 14 21 12 1 -2 2 7 9 13 12 4 9 14 8 9 15 15 14 12 11 11 9 9 10 11 11 11 11 10 9 8 9 9 8 6 7 8 9 9 9 9 8 8 9 8 8 7 6 6 6 6 6 6 6 6 7 7 7 8 8 9 9
14 19 21 5 -8 -4 3 5 8 14 15 5 7 14 11 9 13 16 14 11 10 10 9 11 12 12 13 14 15 12 9 10 9 8 7 6 8 9 8 8 8 8 8 8 7 6 5 5 5 6 7 7 7 7 7 7 7 7 7 7 8 8 9
14 25 22 2 -7 -1 2 4 11 19 17 7 8 11 8 8 11 14 14 12 11 11 11 12 13 15 16 17 19 16 11 10 8 6 6 7 8 7 5 6 6 6 6 4 3 4 5 6 8 9 9 9 9 8 9 9 8 8 8 7 7 7 7
10 20 16 1 -3 0 4 11 20 22 15 6 7 9 9 11 10 10 12 12 13 14 13 13 13 15 16 15 15 14 11 9 7 7 7 7 7 5 4 5 4 4 3 4 5 6 7 8 8 9 8 8 9 10 10 11 11 11 11 10 9 8 7
7 13 13 7 3 3 12 25 25 17 10 7 8 10 12 12 8 8 11 12 13 14 11 10 11 13 14 11 8 8 9 8 8 8 8 7 6 4 4 4 4 5 5 7 8 6 6 8 7 7 8 7 9 11 13 14 15 14 14 12 11 9 8
11 15 16 10 4 3 11 22 19 11 11 12 10 10 12 14 11 8 10 12 12 13 12 9 9 10 11 8 6 6 7 7 9 10 9 7 6 4 4 6 7 7 8 7 7 5 5 7 7 6 7 8 10 12 13 14 14 14 14 14 12 10 8
12 17 19 9 3 3 2 6 7 4 10 15 11 8 10 15 16 11 9 11 10 11 14 12 10 9 8 7 7 6 6 8 9 10 9 7 6 6 6 8 8 7 8 8 6 5 5 5 7 7 7 9 11 12 13 12 11 11 12 13 14 14 14
12 22 24 8 2 2 -2 4 8 -0 3 12 11 10 11 14 14 10 9 11 10 10 12 12 10 9 8 8 8 6 6 9 9 9 10 8 6 7 7 7 7 7 7 8 7 6 5 4 6 8 8 9 11 12 13 13 12 11 11 12 14 16 18
13 22 21 6 1 -1 -2 12 21 10 2 5 8 10 11 12 9 4 9 14 12 9 10 11 11 9 9 9 10 10 10 9 9 9 8 6 5 7 7 6 6 7 7 7 7 6 5 5 6 8 8 9 10 11 12 12 12 12 12 12 12 12 14
15 15 15 10 5 5 11 21 24 15 3 -1 6 10 7 6 4 2 8 16 15 11 9 11 12 10 10 12 13 15 14 10 9 7 5 6 6 6 6 5 4 5 5 5 7 6 5 5 7 8 8 9 10 11 11 11 12 12 11 11 10 9 9
15 11 15 17 8 8 20 24 20 15 7 -0 5 10 5 2 3 1 5 14 19 17 12 11 13 13 13 15 14 13 13 10 7 5 4 5 6 4 3 3 3 4 4 4 6 7 6 6 6 8 9 9 10 10 10 11 12 11 10 8 7 6 5
17 10 13 18 9 4 11 15 15 15 10 6 11 13 7 0 2 3 4 11 18 19 16 14 14 16 16 15 13 10 10 9 6 5 4 3 2 2 1 2 3 3 3 4 5 6 6 5 5 7 9 10 10 9 9 10 11 10 8 5 4 4 4
22 9 8 12 4 3 10 12 16 17 9 5 11 15 11 5 4 5 5 7 10 11 14 13 11 13 14 12 13 14 14 14 12 10 9 7 6 6 4 4 3 2 3 4 5 6 7 6 5 6 8 10 10 8 7 8 9 8 5 4 4 4 4
27 9 5 10 4 4 8 4 9 19 14 4 3 7 12 10 6 6 5 4 3 3 8 9 5 5 8 8 10 12 12 13 14 14 12 11 11 10 9 9 8 7 7 7 6 5 5 6 5 4 7 10 10 8 6 6 7 7 5 4 4 4 4
27 11 2 8 6 3 4 3 11 21 16 8 4 4 11 13 7 6 6 3 2 2 4 6 4 2 4 5 5 5 6 5 7 11 11 10 11 10 11 11 11 11 12 10 9 7 6 6 5 5 7 10 9 7 6 5 6 6 5 3 3 3 3
20 12 3 6 8 7 9 14 18 14 7 7 9 8 12 14 8 5 6 5 3 3 2 3 5 4 4 4 2 2 5 4 4 8 9 9 10 10 11 11 10 12 15 15 14 10 6 4 4 4 5 7 7 7 6 5 5 5 5 4 2 1 2
15 13 7 5 9 13 17 19 15 7 2 3 6 8 12 12 8 6 6 6 7 7 7 6 5 3 4 5 4 2 2 1 2 4 5 6 9 11 13 13 10 10 13 16 17 13 7 5 4 5 6 6 7 9 8 7 5 5 5 3 2 1 3
10 14 11 4 2 6 10 12 13 14 14 11 6 5 6 6 7 8 6 6 8 7 7 8 6 3 3 4 6 7 3 0 1 2 3 6 8 10 13 14 13 10 9 13 18 16 10 6 5 5 6 6 6 8 8 6 4 5 5 3 2 2 3
5 10 12 8 4 5 5 5 7 10 14 18 16 12 10 8 8 8 7 7 9 9 9 10 7 5 4 1 4 9 7 2 2 2 2 3 5 7 10 11 13 13 9 9 15 18 14 8 5 5 5 5 6 8 10 8 4 4 4 4 3 4 4
2 4 8 8 6 6 7 8 8 6 4 7 12 13 15 16 15 13 11 8 6 6 7 6 2 2 2 -1 -1 5 7 5 5 4 1 -0 1 4 7 7 10 15 14 10 11 14 14 9 7 7 6 7 7 9 12 12 9 7 8 8 7 6 5
0 -0 2 6 7 6 7 6 8 11 10 7 6 7 10 13 13 14 15 13 9 6 3 -1 -3 -3 -2 -1 0 3 5 5 6 4 1 -1 0 4 7 7 6 9 16 17 13 11 10 8 8 8 7 7 8 8 11 12 11 10 10 9 7 5 3
1 2 -1 2 6 7 9 9 7 9 12 11 9 9 10 10 9 8 9 9 8 7 6 4 3 2 1 3 4 5 6 7 8 7 3 -0 1 4 8 10 7 4 8 15 17 15 11 8 7 6 5 6 8 9 11 11 10 8 8 7 5 3 2
3 6 4 1 3 5 6 9 9 8 10 10 10 11 12 12 10 8 7 6 6 7 9 8 7 8 7 6 5 6 7 8 9 9 6 2 2 4 8 11 9 5 5 9 13 16 17 13 11 10 9 9 11 11 12 10 9 8 7 6 4 2 1
6 9 11 5 3 4 3 6 9 10 11 12 11 12 12 11 11 11 10 9 8 9 9 9 8 9 9 8 7 8 9 8 7 9 8 3 2 5 8 10 8 6 7 7 7 11 14 15 14 14 14 14 13 12 11 10 9 8 7 5 3 2 2
8 9 11 8 5 5 3 2 5 8 10 11 12 13 12 11 12 12 10 10 11 10 10 11 11 10 10 10 11 12 12 10 8 8 8 5 3 5 7 9 8 6 6 6 7 7 9 12 15 17 17 15 13 11 11 10 9 8 7 5 3 3 4
4 2 5 5 4 6 5 0 -0 3 8 10 10 10 11 11 11 10 9 10 11 11 11 11 11 11 11 11 13 15 16 16 14 12 10 7 6 6 6 7 8 7 4 4 7 7 6 8 12 15 15 13 11 11 10 9 8 8 8 7 6 6 5
-2 -2 1 2 1 4 5 2 -0 1 5 7 7 6 7 9 9 8 9 11 10 10 11 10 10 10 9 9 10 12 14 17 18 16 13 10 8 7 6 4 5 5 4 4 5 6 6 7 8 11 12 12 12 12 10 9 9 10 10 9 7 5 4
1 -1 -0 2 4 5 5 4 3 3 4 6 6 5 5 7 7 7 8 10 9 9 8 8 8 7 6 6 7 8 11 14 17 18 16 13 10 8 6 4 3 3 3 3 3 4 4 5 6 7 7 8 9 9 7 6 7 8 7 5 3 2 1
1 -1 -1 5 10 8 5 2 3 5 5 3 4 5 5 5 6 7 7 8 8 9 8 8 8 7 6 6 5 6 7 8 11 15 16 13 11 9 9 7 5 4 4 4 4 3 2 2 3 3 4 4 3 2 2 3 4 4 3 1 0 0 -1
-1 1 4 9 11 8 3 1 2 4 4 2 1 3 3 2 2 5 6 7 8 9 8 7 6 5 5 5 4 5 6 6 7 9 10 10 11 12 12 10 8 8 8 8 7 6 5 4 3 3 3 3 3 2 1 2 2 1 1 -0 -1 -1 -1
15 19 19 19 18 13 9 7 7 6 5 3 0 -0 2 2 1 2 4 5 6 8 8 8 7 5 3 3 4 5 6 6 7 7 7 8 9 10 12 11 9 9 11 11 10 9 8 8 7 7 6 5 5 4 3 3 3 3 2 1 -1 -1 -0
11 7 5 10 14 11 10 11 12 10 9 6 2 1 3 4 0 -1 2 4 6 6 6 6 6 6 4 3 4 6 6 7 8 8 7 7 7 8 9 9 8 9 9 9 9 9 9 8 7 8 8 8 8 7 5 4 5 5 5 5 3 3 3
-6 -13 -10 -4 -2 1 8 14 13 12 12 10 4 1 4 6 3 0 0 3 5 7 7 6 5 6 7 5 5 6 5 6 7 8 8 8 7 7 6 6 6 7 7 8 9 9 10 10 8 9 10 10 10 9 6 6 6 5 5 6 5 5 5

ECMWFFLT1_500_avort_045.txt.gz
Vorticity
18 19 11 3 8 10 4 3 6 7 10 12 11 10 9 9 9 9 9 9 7 7 12 14 11 9 9 8 7 6 7 9 7 8 11 10 9 8 7 6 5 7 9 7 7 8 7 7 6 5 4 3 2 1 1 0 0 -1 -1 -1 -0 3 5
17 24 18 8 15 10 -1 5 8 5 8 12 12 11 8 8 7 8 8 8 8 6 7 12 11 9 9 8 7 7 7 8 7 7 11 11 9 9 6 4 4 6 8 8 8 9 7 6 5 4 3 2 1 2 1 1 2 1 1 -0 -2 -2 -1
13 17 19 18 18 7 -0 8 8 4 7 9 12 13 10 9 8 8 9 8 8 8 6 8 10 9 8 8 7 7 7 7 7 7 10 12 10 8 6 4 5 6 7 6 6 6 6 4 3 1 2 2 1 2 2 2 3 4 4 3 2 1 -1
15 6 7 10 8 2 4 8 6 6 6 5 10 13 11 11 10 9 11 9 8 10 9 7 9 9 8 8 8 7 7 6 6 7 8 10 11 8 5 5 5 5 6 6 4 3 3 3 2 0 0 1 1 2 3 4 5 6 7 7 7 6 4
22 10 2 2 -0 1 5 5 5 6 4 5 10 11 12 12 10 9 10 10 9 9 9 6 7 9 7 7 8 7 7 6 5 7 7 9 11 8 7 6 5 4 5 5 4 3 3 3 3 2 2 3 4 5 6 7 8 8 9 9 9 9 9
16 15 9 6 3 4 5 2 3 4 3 10 11 7 11 13 12 11 9 10 11 9 9 8 6 8 8 7 7 6 6 7 6 7 8 10 10 8 8 7 7 6 5 4 3 3 3 4 5 6 6 6 6 7 7 7 7 7 7 8 8 9 9
7 13 12 11 8 6 4 1 3 4 4 11 12 7 9 11 12 14 10 9 12 10 9 10 8 8 9 7 7 7 7 8 8 8 9 11 11 8 7 6 8 8 7 5 3 3 4 5 6 7 7 7 6 6 6 6 6 7 7 7 7 7 7
10 13 8 9 11 5 0 1 3 4 4 8 12 8 6 9 12 13 10 10 12 12 10 9 10 10 11 9 8 9 9 8 8 9 10 11 10 7 6 7 8 7 6 6 5 5 6 5 5 6 5 5 6 6 6 7 7 7 6 7 7 7 7
10 12 5 13 21 11 4 6 3 1 4 7 11 10 8 11 14 13 11 10 10 12 10 8 9 10 11 11 12 12 11 9 9 9 10 10 9 7 7 8 8 7 7 7 7 5 5 4 4 5 6 6 6 6 6 7 7 8 8 8 8 8 9
8 9 4 14 26 15 4 6 3 1 5 6 9 13 10 11 14 15 13 10 10 10 10 8 8 9 10 11 13 14 12 11 10 10 9 8 6 6 7 7 7 8 8 6 5 4 3 5 6 6 7 7 6 6 7 8 9 10 11 11 10 9 8
9 8 6 16 24 11 -1 1 3 4 5 6 10 14 10 8 13 16 14 11 11 11 10 10 9 9 10 10 12 14 14 13 12 11 10 7 6 8 8 8 8 8 6 4 4 3 4 6 7 7 6 6 6 7 8 11 12 12 13 12 10 9 7
11 9 8 20 25 10 -2 -1 3 5 5 8 13 13 9 8 10 13 13 9 10 11 11 12 11 10 11 12 14 14 13 14 13 12 9 6 8 10 7 7 7 6 4 4 4 5 5 6 6 6 5 5 7 9 9 11 11 11 12 11 10 9 7
12 12 9 18 22 9 -0 -0 3 8 10 11 14 11 8 11 12 11 10 8 8 10 11 13 13 12 13 14 14 14 12 12 10 7 7 7 8 9 6 6 6 4 3 5 6 6 6 6 6 5 6 7 8 9 10 10 11 11 12 12 12 11 10
17 23 20 17 17 9 1 2 7 14 15 10 11 10 9 12 14 10 8 9 8 8 10 14 14 12 14 15 13 12 10 8 5 4 5 7 8 7 6 5 4 4 5 7 7 7 5 4 4 5 7 9 8 8 10 11 11 12 12 14 16 16 15
21 27 24 13 10 8 2 3 10 13 11 8 9 12 11 12 14 12 10 9 7 7 9 13 14 12 12 13 11 9 7 5 5 6 8 8 8 7 5 5 5 6 7 8 7 7 6 3 4 6 8 8 8 9 11 10 11 12 12 14 16 16 16
20 25 24 12 8 9 5 8 12 7 4 5 9 13 11 10 13 14 12 10 7 7 9 11 14 13 10 9 7 6 6 6 6 8 10 10 8 7 6 6 7 7 6 7 7 7 6 5 5 7 7 7 7 8 11 11 10 12 12 13 14 14 13
17 18 24 19 12 11 8 8 9 3 -1 -0 4 12 14 11 11 12 11 11 8 7 8 10 12 13 11 10 9 7 7 8 9 10 11 11 9 8 8 7 7 7 6 6 7 6 6 6 6 6 6 7 7 7 9 11 11 12 12 11 11 11 9
14 15 25 23 12 11 9 5 6 5 6 5 1 8 15 12 8 9 9 10 11 10 10 10 11 12 12 11 11 12 12 10 11 12 12 12 10 7 7 7 6 6 5 5 5 5 5 6 6 5 5 7 8 8 9 9 10 11 11 10 8 5 4
12 19 28 22 10 8 7 6 11 12 13 12 2 3 14 12 5 5 6 9 14 15 14 12 12 12 13 13 13 14 15 14 13 14 12 10 9 6 6 6 6 5 4 4 4 4 4 5 6 5 5 7 9 8 8 8 8 9 10 8 5 3 3
10 18 25 23 17 12 6 7 15 14 14 16 7 2 10 9 3 3 2 3 10 16 18 16 15 14 12 11 11 11 12 11 10 10 9 7 6 5 5 4 3 3 3 3 4 4 3 4 5 6 5 6 7 8 7 8 7 7 7 6 4 4 5
3 14 22 24 19 9 2 4 11 12 14 16 9 3 7 7 3 2 3 3 6 12 16 16 16 17 13 9 11 13 12 11 10 10 9 8 7 6 6 7 6 6 6 6 6 5 5 4 5 5 6 6 6 7 8 8 7 5 6 5 4 3 5
-4 12 23 22 15 5 -1 3 8 11 14 15 8 4 8 9 6 4 4 6 5 6 11 12 11 12 11 10 14 17 15 13 13 12 12 12 13 13 13 14 13 12 10 10 9 8 7 8 6 6 7 7 5 6 8 8 6 5 4 5 5 4 4
-3 15 26 22 13 5 -0 2 7 7 9 14 11 5 5 9 8 6 6 8 6 5 9 10 7 6 7 6 5 7 7 6 6 6 7 9 10 10 11 12 12 11 10 10 11 10 10 12 11 8 6 5 5 7 9 7 6 5 4 4 6 5 5
8 17 26 22 13 5 1 2 5 3 3 9 11 6 5 7 7 7 8 8 6 6 8 10 7 3 4 3 1 -1 0 2 3 2 3 5 5 7 9 10 11 11 11 10 10 11 12 13 13 11 7 6 6 7 7 7 5 5 4 3 4 5 5
18 17 21 21 13 6 4 3 3 2 2 6 8 7 6 6 6 6 8 7 5 3 5 7 6 3 1 2 4 4 2 2 2 1 0 1 2 4 7 8 9 10 12 12 10 10 11 13 15 15 11 7 6 6 7 7 5 4 5 4 4 4 5
17 12 15 18 14 9 7 5 3 3 6 7 9 10 8 7 8 7 4 3 4 2 0 -0 2 3 3 3 5 7 7 6 5 2 -0 -0 1 2 2 4 6 8 9 12 13 11 10 10 14 19 17 10 5 5 7 8 5 3 5 5 4 5 5
15 11 10 10 11 11 8 6 6 9 13 13 12 9 7 9 13 12 7 4 4 3 2 0 -0 1 4 6 5 5 6 6 7 6 3 0 0 2 2 0 1 4 6 9 12 14 14 12 10 14 20 18 10 6 7 8 6 5 5 6 7 7 6
12 7 6 6 7 8 6 5 7 10 13 16 16 14 11 12 13 11 10 9 7 7 7 5 3 2 4 5 4 4 5 5 6 7 5 3 1 1 1 -0 -2 -0 3 6 9 11 13 17 16 12 13 16 15 12 10 8 6 5 6 8 8 7 6
11 6 4 3 3 4 6 7 9 10 12 13 16 18 16 16 14 12 10 8 9 12 12 8 5 4 4 4 3 3 5 4 3 4 5 5 5 2 2 1 -2 -3 1 6 10 10 7 11 18 19 15 12 11 10 8 6 5 4 5 7 9 9 8
11 8 6 5 5 4 6 9 11 15 17 15 12 11 9 11 13 15 15 12 9 10 9 5 4 3 0 1 2 2 1 -0 1 4 5 5 5 5 4 3 0 -1 1 3 8 12 8 5 9 15 18 16 13 10 7 5 4 4 5 8 11 11 10
8 6 5 6 6 4 4 6 8 13 17 15 11 9 9 9 9 10 14 17 15 13 11 7 7 6 3 3 3 2 2 2 2 5 6 6 6 6 5 4 3 2 1 0 4 9 9 7 6 7 10 13 15 16 15 12 10 9 8 9 12 12 11
6 4 2 -0 1 5 7 7 5 8 13 14 12 11 11 12 12 9 9 11 12 12 12 9 6 5 4 5 5 5 6 6 4 4 5 6 5 4 4 5 5 3 0 0 3 6 7 7 6 6 7 8 10 14 18 18 17 15 13 12 12 11 11
3 2 1 -2 -1 3 7 8 7 5 6 8 10 10 10 13 16 15 12 11 10 8 9 8 7 5 3 1 1 3 4 4 4 3 4 5 5 4 3 4 5 5 2 1 2 5 7 7 5 4 6 7 8 10 13 17 19 18 17 15 13 13 11
5 3 -0 -2 -1 1 3 7 10 9 6 4 3 5 8 12 16 18 17 15 14 12 11 12 12 10 9 6 4 5 5 4 4 5 6 8 9 8 7 5 5 6 5 3 3 4 5 6 5 5 5 5 6 7 7 10 13 15 16 14 12 12 10
0 1 1 0 -0 1 3 5 7 8 6 6 4 3 7 12 16 17 17 17 18 17 15 15 14 13 14 14 12 12 11 9 10 11 13 15 17 18 17 13 9 8 7 5 5 4 4 4 4 4 4 4 4 5 5 6 7 8 10 11 10 10 10
1 -0 1 2 -0 2 6 5 5 5 4 5 6 5 6 9 10 10 10 11 14 16 16 15 15 14 15 15 15 15 15 14 15 14 14 15 17 21 25 23 19 15 12 9 7 4 3 4 3 2 2 2 1 2 2 1 3 4 4 5 5 4 4
3 1 2 4 1 3 6 2 -0 3 4 3 5 5 5 6 5 4 5 5 7 10 13 15 14 13 13 12 11 11 11 10 9 7 6 8 10 12 17 21 21 20 18 15 11 7 6 6 5 3 3 2 2 2 2 0 0 1 2 3 3 3 3
3 2 1 3 2 2 4 1 -1 0 1 1 4 6 7 6 3 2 2 2 4 6 8 11 13 12 11 10 9 7 7 5 6 5 3 5 7 6 7 10 12 14 17 17 14 11 9 8 7 4 3 4 3 3 4 4 4 3 2 3 4 4 4

ECMWFFLT1_500_avort_048.txt.gz
Vorticity
10 17 15 11 8 4 6 9 4 2 5 9 12 13 13 15 13 11 12 10 7 10 14 13 9 8 9 8 5 3 4 6 7 7 7 7 6 5 6 8 8 7 5 4 7 11 9 7 6 5 4 3 2 1 -0 -1 -1 -2 -2 -2 -1 0 1
-4 5 12 12 9 8 11 12 6 2 1 4 11 14 13 13 12 11 12 11 7 7 12 15 12 8 7 8 6 3 4 6 6 5 7 8 8 8 8 7 5 7 7 6 9 10 7 5 4 4 3 2 1 -0 -1 -1 -0 -0 0 -0 -1 -2 -2
5 -0 5 10 6 7 15 14 8 4 2 3 9 13 14 13 10 10 12 11 8 7 11 15 13 9 7 6 6 5 4 6 5 5 6 8 9 9 9 6 4 6 8 8 9 8 7 6 5 3 1 0 0 1 1 1 1 2 3 3 3 2 1
12 7 4 8 7 6 15 16 8 3 2 3 7 10 13 13 10 10 11 10 8 6 10 15 14 9 7 6 5 5 5 5 5 5 5 8 9 10 10 6 3 6 9 9 8 6 6 5 3 1 0 0 1 1 2 2 3 4 4 4 5 6 5
7 13 8 5 6 8 14 15 9 3 0 1 4 7 12 13 11 9 9 10 10 6 6 12 14 9 7 6 5 5 5 5 5 4 5 7 9 9 9 6 3 6 9 9 7 6 5 4 1 -0 0 1 1 1 2 4 5 6 7 7 7 7 7
3 9 11 8 7 10 13 14 11 6 1 -1 2 6 11 13 11 9 8 9 10 9 6 9 12 10 7 6 6 5 6 5 4 4 5 7 8 9 9 6 4 6 9 7 6 5 4 3 2 1 1 1 1 2 4 6 7 7 8 8 8 8 8
14 6 8 14 15 13 11 11 10 6 2 0 1 4 8 11 11 10 9 9 10 10 8 9 11 12 9 7 7 6 6 6 4 4 5 6 7 8 8 6 5 6 8 6 5 4 2 2 3 1 1 2 2 5 7 7 7 7 6 6 7 7 7
23 18 10 10 11 11 7 7 7 4 2 2 1 3 6 9 12 11 9 9 11 11 9 9 10 12 12 11 8 7 6 5 4 3 5 7 8 8 8 7 6 6 7 6 3 2 1 2 2 2 2 4 5 6 6 6 6 6 6 6 7 6 6
12 23 21 10 5 8 7 4 2 -0 1 3 2 3 6 9 11 11 11 10 10 11 10 10 9 10 12 12 10 8 6 5 4 4 5 7 8 8 8 7 7 6 7 5 3 3 3 3 3 5 6 6 7 6 6 6 6 5 6 6 7 7 7
2 9 18 16 11 13 12 8 3 -2 -2 -1 -0 3 5 8 10 10 11 11 10 11 10 10 10 9 11 12 10 8 6 5 5 4 6 8 9 9 8 6 7 8 7 5 4 3 3 4 5 7 8 6 5 5 5 5 5 5 7 8 9 9 8
6 2 5 8 10 13 13 12 10 5 2 -1 -2 2 4 6 10 10 11 11 10 11 11 9 10 10 10 11 11 10 7 6 6 5 7 8 9 9 8 6 6 7 8 6 5 3 3 4 5 5 6 5 4 4 4 5 6 8 10 11 11 10 9
8 8 4 -0 2 9 13 13 11 8 9 6 0 0 3 4 8 10 10 10 10 11 12 10 9 8 8 10 12 12 10 9 8 7 8 9 10 9 6 6 6 7 8 7 6 5 4 4 4 5 4 3 3 4 5 6 8 9 11 11 11 11 9
6 9 7 3 1 6 12 13 9 5 6 9 7 5 5 4 6 10 10 10 12 13 13 11 9 8 7 8 11 13 12 12 10 10 11 11 10 9 7 6 6 7 8 7 6 5 4 4 4 4 3 3 4 5 6 7 8 9 11 12 11 11 9
14 11 6 5 4 8 13 12 10 7 6 8 9 9 9 6 4 8 10 10 12 14 13 13 11 10 8 8 9 11 11 11 11 11 14 13 10 8 7 6 6 7 8 7 5 4 4 4 3 3 3 3 5 6 6 7 9 10 11 11 11 12 11
16 14 10 7 6 10 14 10 6 5 6 8 8 8 10 9 5 5 7 9 12 14 13 12 11 10 10 9 8 8 8 10 11 12 14 13 10 7 7 6 6 7 7 6 5 4 3 3 3 3 4 5 6 7 7 7 8 9 10 11 11 11 11
15 19 21 15 9 9 12 10 7 5 4 5 7 9 10 9 6 4 5 9 12 14 13 11 10 10 11 11 9 8 9 10 11 12 13 12 9 7 7 8 8 7 6 6 5 4 3 3 4 5 4 5 6 7 7 7 7 9 11 12 11 11 11
17 23 26 20 12 11 11 9 8 7 2 -1 7 15 15 11 6 3 6 9 12 15 14 10 10 11 11 12 12 11 12 11 11 11 11 9 7 6 6 8 9 8 7 7 6 4 3 4 6 6 4 4 5 6 7 6 7 9 11 11 12 12 13
15 17 22 21 12 8 11 13 11 6 -3 -5 10 21 15 7 5 4 7 10 10 12 12 10 10 11 11 12 12 14 15 15 13 10 8 6 4 4 7 8 8 8 8 7 5 3 5 6 7 6 6 5 6 7 7 6 6 8 10 11 12 13 12
14 12 15 18 13 11 12 7 5 7 3 3 17 22 12 5 5 8 11 12 11 11 11 10 10 10 12 12 12 15 16 15 12 9 6 4 3 4 7 8 8 9 8 6 5 5 6 7 7 7 6 6 7 8 7 6 7 9 10 11 10 10 11
13 14 16 18 17 17 11 -7 -8 6 11 13 20 18 11 9 10 10 12 12 11 10 9 9 10 11 12 13 12 13 13 12 10 7 4 4 5 6 8 9 10 11 8 5 5 7 7 7 8 8 7 6 6 6 6 6 8 9 10 10 9 9 11
16 17 20 20 19 22 17 5 6 14 11 10 13 11 10 10 8 8 11 12 11 10 7 7 9 11 12 13 13 11 10 9 7 7 6 7 8 9 10 12 13 12 9 7 7 7 7 7 8 7 7 7 6 5 5 6 7 9 10 10 9 9 11
20 19 17 17 25 32 25 16 16 15 10 8 8 6 7 8 9 9 10 11 11 8 5 5 6 8 10 11 12 11 11 12 10 10 11 11 12 13 13 13 13 9 7 7 6 7 7 6 5 5 5 6 6 6 6 5 6 8 9 9 7 8 11
15 19 15 17 26 24 10 7 12 12 8 7 5 4 4 5 9 11 8 8 10 8 6 4 4 6 8 9 10 12 12 13 13 13 14 14 14 13 12 10 8 7 6 6 5 5 5 4 4 3 3 3 4 6 6 5 5 7 7 7 6 7 9
5 13 16 20 21 9 -0 4 10 11 9 7 7 7 3 3 8 10 7 6 7 7 7 7 6 7 10 10 8 8 9 10 11 12 12 13 11 10 10 9 7 7 7 6 5 5 4 5 5 5 5 4 4 5 6 5 5 6 7 6 6 7 8
-2 7 17 24 18 7 9 12 7 6 8 7 11 12 5 2 5 6 6 7 6 8 11 12 11 11 13 12 8 7 9 9 9 10 9 9 9 9 10 9 8 9 9 8 9 9 8 9 10 9 9 7 5 6 7 6 6 5 7 7 6 7 6
-2 -4 3 21 26 17 15 12 3 2 5 7 16 19 10 4 3 4 9 10 9 11 14 13 13 13 12 11 10 13 16 15 13 11 10 9 9 9 10 10 8 9 10 11 11 12 12 12 12 11 11 9 9 10 9 8 6 5 6 6 6 8 6
2 -3 -11 7 31 29 14 6 0 -1 3 11 18 19 13 8 4 5 11 12 10 13 14 12 13 14 11 10 10 11 12 10 8 8 7 6 5 5 6 8 8 10 11 11 12 12 13 14 13 12 11 10 11 13 14 12 9 5 5 6 5 6 6
1 4 -4 4 30 33 12 2 1 -1 2 9 12 14 14 10 5 5 9 10 10 12 13 14 15 13 7 5 4 2 1 -1 -1 1 2 2 2 2 2 2 3 7 9 9 9 10 11 13 13 13 13 12 12 13 15 17 15 9 5 4 5 6 6
1 1 2 10 30 31 11 2 2 -2 0 5 6 9 12 9 6 7 6 5 8 9 9 12 13 8 4 3 -1 -3 0 3 2 2 2 2 1 1 1 -0 -0 1 3 3 4 4 6 8 10 11 12 13 13 13 12 14 18 18 12 6 3 4 5
3 0 5 16 28 24 9 4 3 -1 -0 3 4 7 10 8 9 10 6 4 8 8 8 9 9 6 4 1 -3 -2 4 7 4 2 5 6 6 5 3 1 1 2 1 1 0 -0 -0 2 5 8 8 7 8 11 13 11 13 16 18 16 11 7 6
1 -1 5 17 27 22 8 2 3 2 2 3 5 7 5 3 6 10 8 6 8 10 9 4 3 7 4 -3 -4 1 5 4 1 3 7 7 5 6 6 4 3 2 1 1 1 -0 -2 -2 1 7 10 8 6 6 11 14 13 12 13 16 16 13 10
-1 4 9 16 23 22 11 3 3 3 1 3 7 11 9 7 8 10 10 10 12 21 25 11 -3 -2 -0 -4 -3 2 2 2 2 4 5 4 2 3 5 5 4 3 2 2 2 2 1 -1 -1 2 6 9 7 4 5 10 14 15 13 11 10 10 7
3 7 11 14 19 18 10 5 6 8 8 7 8 10 11 12 14 15 16 16 13 19 34 33 15 2 -3 -7 -6 -4 -2 3 6 4 2 2 2 2 3 3 3 3 3 3 3 3 4 3 1 1 2 5 8 7 5 4 6 11 14 14 14 14 12
10 12 10 10 16 14 5 2 6 9 10 9 6 6 6 6 12 14 12 11 7 5 14 23 21 16 13 11 12 9 4 4 5 2 2 4 3 3 3 2 2 3 2 2 2 2 3 4 4 3 1 2 5 8 7 5 4 5 8 12 16 19 20
8 12 11 9 12 12 5 3 3 1 2 2 2 5 6 7 13 14 5 3 8 7 5 7 8 9 11 14 19 21 15 8 3 -0 1 3 3 3 3 1 1 3 2 2 3 2 2 3 4 5 3 2 3 6 6 5 5 4 4 6 7 10 14
6 9 10 8 9 10 8 6 5 1 2 3 2 5 10 12 13 11 7 7 10 10 8 8 9 9 6 3 4 7 8 7 4 2 3 3 1 1 3 3 3 3 2 2 3 2 1 1 1 3 4 3 3 5 6 5 4 3 3 4 3 3 5
4 6 9 7 7 8 6 6 7 6 5 5 4 5 11 15 14 11 11 13 13 11 11 10 10 11 12 9 6 5 5 4 3 3 5 4 2 1 1 2 2 1 -1 -0 1 1 2 3 2 1 2 3 4 4 5 6 5 5 5 4 3 3 3
3 5 9 9 7 8 7 5 5 6 4 3 5 6 9 12 13 12 13 13 13 13 14 14 12 9 9 10 10 9 8 7 4 3 3 2 2 2 1 0 0 1 3 7 9 10 11 11 10 8 6 7 7 6 6 7 7 6 5 4 3 3 3